Time,TemperatureF,DewpointF,PressureIn,WindDirection,WindDirectionDegrees,WindSpeedMPH,WindSpeedGustMPH,Humidity,HourlyPrecipIn,Conditions,Clouds,dailyrainin,SolarRadiationWatts/m^2,SoftwareType,DateUTC
2013-05-18 00:00:00,53.4,48.7,30.09,NNE,22,0.0,0.0,84,0.00,,,0.00,0,Wunderground v.1.15,2013-05-18 05:00:00,
2013-05-18 00:01:00,53.3,48.6,30.09,NNE,22,0.0,0.0,84,0.00,,,0.00,0,Wunderground v.1.15,2013-05-18 05:01:00,
2013-05-18 00:04:00,53.3,48.6,30.09,NNE,22,0.0,0.0,84,0.00,,,0.00,0,Wunderground v.1.15,2013-05-18 05:04:00,
2013-05-18 00:05:00,53.2,48.5,30.09,NNE,22,0.0,0.0,84,0.00,,,0.00,0,Wunderground v.1.15,2013-05-18 05:05:00,
2013-05-18 00:06:00,53.2,48.5,30.09,NNE,22,0.0,0.0,84,0.00,,,0.00,0,Wunderground v.1.15,2013-05-18 05:06:00,
2013-05-18 00:08:00,53.2,48.5,30.09,NNE,22,0.0,0.0,84,0.00,,,0.00,0,Wunderground v.1.15,2013-05-18 05:08:00,
2013-05-18 00:12:00,53.1,48.4,30.09,NNE,22,0.0,0.0,84,0.00,,,0.00,0,Wunderground v.1.15,2013-05-18 05:12:00,
2013-05-18 00:13:00,53.1,48.4,30.09,NNE,22,0.0,0.0,84,0.00,,,0.00,0,Wunderground v.1.15,2013-05-18 05:13:00,
2013-05-18 00:14:00,53.0,48.3,30.09,NNE,22,0.0,0.0,84,0.00,,,0.00,0,Wunderground v.1.15,2013-05-18 05:14:00,
2013-05-18 00:17:00,53.0,48.3,30.09,NNE,22,0.0,0.0,84,0.00,,,0.00,0,Wunderground v.1.15,2013-05-18 05:17:00,
2013-05-18 00:19:00,53.0,48.3,30.09,NNE,22,0.0,0.0,84,0.00,,,0.00,0,Wunderground v.1.15,2013-05-18 05:19:00,
2013-05-18 00:20:00,52.9,48.2,30.09,NNE,22,0.0,0.0,84,0.00,,,0.00,0,Wunderground v.1.15,2013-05-18 05:20:00,
2013-05-18 00:24:00,52.9,48.5,30.09,NNE,22,0.0,0.0,85,0.00,,,0.00,0,Wunderground v.1.15,2013-05-18 05:24:00,
2013-05-18 00:25:00,52.8,48.4,30.09,NNE,22,0.0,0.0,85,0.00,,,0.00,0,Wunderground v.1.15,2013-05-18 05:25:00,
2013-05-18 00:26:00,52.8,48.4,30.09,NNE,22,0.0,0.0,85,0.00,,,0.00,0,Wunderground v.1.15,2013-05-18 05:26:00,
2013-05-18 00:28:00,52.8,48.4,30.09,NNE,22,0.0,0.0,85,0.00,,,0.00,0,Wunderground v.1.15,2013-05-18 05:28:00,
2013-05-18 00:30:00,52.7,48.3,30.10,NNE,22,0.0,0.0,85,0.00,,,0.00,0,Wunderground v.1.15,2013-05-18 05:30:00,
2013-05-18 00:31:00,52.7,48.3,30.10,NNE,22,0.0,0.0,85,0.00,,,0.00,0,Wunderground v.1.15,2013-05-18 05:31:00,
2013-05-18 00:32:00,52.7,48.3,30.10,NNE,22,0.0,0.0,85,0.00,,,0.00,0,Wunderground v.1.15,2013-05-18 05:32:00,
2013-05-18 00:34:00,52.7,48.3,30.10,NNE,22,0.0,0.0,85,0.00,,,0.00,0,Wunderground v.1.15,2013-05-18 05:34:00,
2013-05-18 00:37:00,52.6,48.5,30.10,NNE,22,0.0,0.0,86,0.00,,,0.00,0,Wunderground v.1.15,2013-05-18 05:37:00,
2013-05-18 00:38:00,52.6,48.5,30.10,NNE,22,0.0,0.0,86,0.00,,,0.00,0,Wunderground v.1.15,2013-05-18 05:38:00,
2013-05-18 00:42:00,52.6,48.5,30.10,NNE,22,0.0,0.0,86,0.00,,,0.00,0,Wunderground v.1.15,2013-05-18 05:42:00,
2013-05-18 00:43:00,52.6,48.5,30.10,NNE,22,0.0,0.0,86,0.00,,,0.00,0,Wunderground v.1.15,2013-05-18 05:43:00,
2013-05-18 00:44:00,52.6,48.5,30.10,NNE,22,0.0,0.0,86,0.00,,,0.00,0,Wunderground v.1.15,2013-05-18 05:44:00,
2013-05-18 00:45:00,52.5,48.4,30.10,NNE,22,0.0,0.0,86,0.00,,,0.00,0,Wunderground v.1.15,2013-05-18 05:45:00,
2013-05-18 00:49:00,52.5,48.4,30.10,NNE,22,0.0,0.0,86,0.00,,,0.00,0,Wunderground v.1.15,2013-05-18 05:49:00,
2013-05-18 00:51:00,52.5,48.4,30.10,NNE,22,0.0,0.0,86,0.00,,,0.00,0,Wunderground v.1.15,2013-05-18 05:51:00,
2013-05-18 00:54:00,52.5,48.4,30.10,NNE,22,0.0,0.0,86,0.00,,,0.00,0,Wunderground v.1.15,2013-05-18 05:54:00,
2013-05-18 00:55:00,52.5,48.4,30.10,NNE,22,0.0,0.0,86,0.00,,,0.00,0,Wunderground v.1.15,2013-05-18 05:55:00,
2013-05-18 00:58:00,52.5,48.4,30.10,NNE,22,0.0,0.0,86,0.00,,,0.00,0,Wunderground v.1.15,2013-05-18 05:58:00,
2013-05-18 00:59:00,52.5,48.7,30.10,NNE,22,0.0,0.0,87,0.00,,,0.00,0,Wunderground v.1.15,2013-05-18 05:59:00,
2013-05-18 01:01:00,52.5,48.7,30.10,NNE,22,0.0,0.0,87,0.00,,,0.00,0,Wunderground v.1.15,2013-05-18 06:01:00,
2013-05-18 01:03:00,52.6,48.8,30.10,NNE,22,0.0,0.0,87,0.00,,,0.00,0,Wunderground v.1.15,2013-05-18 06:03:00,
2013-05-18 01:05:00,52.6,48.8,30.10,NNE,22,0.0,0.0,87,0.00,,,0.00,0,Wunderground v.1.15,2013-05-18 06:05:00,
2013-05-18 01:06:00,52.6,48.8,30.09,NNE,22,0.0,0.0,87,0.00,,,0.00,0,Wunderground v.1.15,2013-05-18 06:06:00,
2013-05-18 01:08:00,52.6,48.8,30.09,NNE,22,0.0,0.0,87,0.00,,,0.00,0,Wunderground v.1.15,2013-05-18 06:08:00,
2013-05-18 01:09:00,52.6,48.8,30.09,NNE,22,0.0,0.0,87,0.00,,,0.00,0,Wunderground v.1.15,2013-05-18 06:09:00,
2013-05-18 01:10:00,52.6,48.8,30.09,NNE,22,0.0,0.0,87,0.00,,,0.00,0,Wunderground v.1.15,2013-05-18 06:10:00,
2013-05-18 01:14:00,52.7,48.9,30.09,NNE,22,0.0,0.0,87,0.00,,,0.00,0,Wunderground v.1.15,2013-05-18 06:14:00,
2013-05-18 01:15:00,52.7,48.9,30.09,NNE,22,0.0,0.0,87,0.00,,,0.00,0,Wunderground v.1.15,2013-05-18 06:15:00,
2013-05-18 01:19:00,52.7,48.9,30.09,NNE,22,0.0,0.0,87,0.00,,,0.00,0,Wunderground v.1.15,2013-05-18 06:19:00,
2013-05-18 01:20:00,52.8,49.0,30.09,NNE,22,0.0,0.0,87,0.00,,,0.00,0,Wunderground v.1.15,2013-05-18 06:20:00,
2013-05-18 01:23:00,52.8,49.0,30.09,NNE,22,0.0,0.0,87,0.00,,,0.00,0,Wunderground v.1.15,2013-05-18 06:23:00,
2013-05-18 01:25:00,52.9,49.1,30.09,NNE,22,0.0,0.0,87,0.00,,,0.00,0,Wunderground v.1.15,2013-05-18 06:25:00,
2013-05-18 01:26:00,52.9,49.1,30.09,NNE,22,0.0,1.0,87,0.00,,,0.00,0,Wunderground v.1.15,2013-05-18 06:26:00,
2013-05-18 01:30:00,52.9,49.1,30.09,NNE,22,0.0,0.0,87,0.00,,,0.00,0,Wunderground v.1.15,2013-05-18 06:30:00,
2013-05-18 01:31:00,53.0,49.2,30.09,NNE,22,0.0,1.0,87,0.00,,,0.00,0,Wunderground v.1.15,2013-05-18 06:31:00,
2013-05-18 01:32:00,52.9,49.1,30.09,NNE,22,0.0,1.0,87,0.00,,,0.00,0,Wunderground v.1.15,2013-05-18 06:32:00,
2013-05-18 01:33:00,53.0,49.2,30.09,NNE,22,0.0,1.0,87,0.00,,,0.00,0,Wunderground v.1.15,2013-05-18 06:33:00,
2013-05-18 01:34:00,53.0,49.2,30.09,NNE,22,0.0,1.0,87,0.00,,,0.00,0,Wunderground v.1.15,2013-05-18 06:34:00,
2013-05-18 01:37:00,53.0,49.2,30.09,NNE,24,0.0,3.0,87,0.00,,,0.00,0,Wunderground v.1.15,2013-05-18 06:37:00,
2013-05-18 01:39:00,53.1,49.0,30.09,NNE,24,0.0,3.0,86,0.00,,,0.00,0,Wunderground v.1.15,2013-05-18 06:39:00,
2013-05-18 01:40:00,53.1,49.0,30.09,NNE,24,0.0,0.0,86,0.00,,,0.00,0,Wunderground v.1.15,2013-05-18 06:40:00,
2013-05-18 01:42:00,53.2,49.4,30.09,NNE,24,0.0,0.0,87,0.00,,,0.00,0,Wunderground v.1.15,2013-05-18 06:42:00,
2013-05-18 01:43:00,53.2,49.1,30.09,NNE,24,0.0,0.0,86,0.00,,,0.00,0,Wunderground v.1.15,2013-05-18 06:43:00,
2013-05-18 01:44:00,53.2,49.1,30.09,NNE,24,0.0,0.0,86,0.00,,,0.00,0,Wunderground v.1.15,2013-05-18 06:44:00,
2013-05-18 01:46:00,53.2,49.1,30.09,NNE,24,0.0,0.0,86,0.00,,,0.00,0,Wunderground v.1.15,2013-05-18 06:46:00,
2013-05-18 01:49:00,53.3,49.2,30.09,NNE,24,0.0,1.0,86,0.00,,,0.00,0,Wunderground v.1.15,2013-05-18 06:49:00,
2013-05-18 01:51:00,53.3,49.2,30.09,NNE,24,0.0,0.0,86,0.00,,,0.00,0,Wunderground v.1.15,2013-05-18 06:51:00,
2013-05-18 01:52:00,53.3,49.2,30.09,NNE,24,0.0,0.0,86,0.00,,,0.00,0,Wunderground v.1.15,2013-05-18 06:52:00,
2013-05-18 01:54:00,53.3,49.2,30.09,NNE,24,0.0,0.0,86,0.00,,,0.00,0,Wunderground v.1.15,2013-05-18 06:54:00,
2013-05-18 01:55:00,53.3,49.2,30.09,NNE,24,0.0,0.0,86,0.00,,,0.00,0,Wunderground v.1.15,2013-05-18 06:55:00,
2013-05-18 01:59:00,53.4,49.3,30.09,NNE,24,0.0,0.0,86,0.00,,,0.00,0,Wunderground v.1.15,2013-05-18 06:59:00,
2013-05-18 02:00:00,53.4,49.3,30.08,NNE,24,0.0,0.0,86,0.00,,,0.00,0,Wunderground v.1.15,2013-05-18 07:00:00,
2013-05-18 02:02:00,53.5,49.1,30.08,NNE,24,0.0,0.0,85,0.00,,,0.00,0,Wunderground v.1.15,2013-05-18 07:02:00,
2013-05-18 02:05:00,53.5,49.1,30.08,NNE,24,0.0,0.0,85,0.00,,,0.00,0,Wunderground v.1.15,2013-05-18 07:05:00,
2013-05-18 02:06:00,53.5,49.1,30.08,NNE,24,0.0,0.0,85,0.00,,,0.00,0,Wunderground v.1.15,2013-05-18 07:06:00,
2013-05-18 02:07:00,53.5,49.1,30.08,NNE,24,0.0,0.0,85,0.00,,,0.00,0,Wunderground v.1.15,2013-05-18 07:07:00,
2013-05-18 02:12:00,53.6,49.2,30.08,NNE,24,0.0,0.0,85,0.00,,,0.00,0,Wunderground v.1.15,2013-05-18 07:12:00,
2013-05-18 02:14:00,53.6,49.2,30.08,ESE,115,0.0,5.0,85,0.00,,,0.00,0,Wunderground v.1.15,2013-05-18 07:14:00,
2013-05-18 02:17:00,53.7,49.3,30.08,East,88,1.0,5.0,85,0.00,,,0.00,0,Wunderground v.1.15,2013-05-18 07:17:00,
2013-05-18 02:19:00,53.7,49.3,30.08,ESE,117,1.0,5.0,85,0.00,,,0.00,0,Wunderground v.1.15,2013-05-18 07:19:00,
2013-05-18 02:21:00,53.7,49.3,30.08,ESE,111,1.0,2.0,85,0.00,,,0.00,0,Wunderground v.1.15,2013-05-18 07:21:00,
2013-05-18 02:22:00,53.7,49.3,30.07,ESE,114,1.0,4.0,85,0.00,,,0.00,0,Wunderground v.1.15,2013-05-18 07:22:00,
2013-05-18 02:23:00,53.7,49.3,30.07,ESE,114,2.0,4.0,85,0.00,,,0.00,0,Wunderground v.1.15,2013-05-18 07:23:00,
2013-05-18 02:27:00,53.8,49.1,30.08,ESE,114,1.0,4.0,84,0.00,,,0.00,0,Wunderground v.1.15,2013-05-18 07:27:00,
2013-05-18 02:28:00,53.7,49.0,30.08,ESE,114,1.0,4.0,84,0.00,,,0.00,0,Wunderground v.1.15,2013-05-18 07:28:00,
2013-05-18 02:29:00,53.8,49.1,30.08,ESE,114,1.0,4.0,84,0.00,,,0.00,0,Wunderground v.1.15,2013-05-18 07:29:00,
2013-05-18 02:32:00,53.8,49.1,30.08,ESE,114,0.0,1.0,84,0.00,,,0.00,0,Wunderground v.1.15,2013-05-18 07:32:00,
2013-05-18 02:34:00,53.8,49.1,30.08,ESE,114,0.0,1.0,84,0.00,,,0.00,0,Wunderground v.1.15,2013-05-18 07:34:00,
2013-05-18 02:39:00,53.8,49.1,30.08,ESE,114,0.0,1.0,84,0.00,,,0.00,0,Wunderground v.1.15,2013-05-18 07:39:00,
2013-05-18 02:41:00,53.8,49.1,30.08,ESE,114,0.0,0.0,84,0.00,,,0.00,0,Wunderground v.1.15,2013-05-18 07:41:00,
2013-05-18 02:42:00,53.8,49.1,30.08,ESE,114,0.0,0.0,84,0.00,,,0.00,0,Wunderground v.1.15,2013-05-18 07:42:00,
2013-05-18 02:44:00,53.8,49.1,30.08,ESE,114,0.0,0.0,84,0.00,,,0.00,0,Wunderground v.1.15,2013-05-18 07:44:00,
2013-05-18 02:47:00,53.8,49.1,30.08,ESE,114,0.0,0.0,84,0.00,,,0.00,0,Wunderground v.1.15,2013-05-18 07:47:00,
2013-05-18 02:48:00,53.8,49.1,30.08,ESE,114,0.0,0.0,84,0.00,,,0.00,0,Wunderground v.1.15,2013-05-18 07:48:00,
2013-05-18 02:49:00,53.8,49.1,30.08,ESE,114,0.0,0.0,84,0.00,,,0.00,0,Wunderground v.1.15,2013-05-18 07:49:00,
2013-05-18 02:50:00,53.9,49.2,30.08,ESE,114,0.0,0.0,84,0.00,,,0.00,0,Wunderground v.1.15,2013-05-18 07:50:00,
2013-05-18 02:53:00,53.9,49.2,30.08,ESE,114,0.0,0.0,84,0.00,,,0.00,0,Wunderground v.1.15,2013-05-18 07:53:00,
2013-05-18 02:56:00,53.9,49.2,30.08,ESE,114,0.0,0.0,84,0.00,,,0.00,0,Wunderground v.1.15,2013-05-18 07:56:00,
2013-05-18 02:59:00,53.9,49.5,30.08,ESE,114,0.0,0.0,85,0.00,,,0.00,0,Wunderground v.1.15,2013-05-18 07:59:00,
2013-05-18 03:02:00,53.9,49.5,30.08,ESE,114,0.0,0.0,85,0.00,,,0.00,0,Wunderground v.1.15,2013-05-18 08:02:00,
2013-05-18 03:04:00,53.9,49.5,30.08,ESE,114,0.0,0.0,85,0.00,,,0.00,0,Wunderground v.1.15,2013-05-18 08:04:00,
2013-05-18 03:06:00,53.9,49.5,30.08,ESE,114,0.0,0.0,85,0.00,,,0.00,0,Wunderground v.1.15,2013-05-18 08:06:00,
2013-05-18 03:07:00,53.8,49.4,30.08,ESE,114,0.0,0.0,85,0.00,,,0.00,0,Wunderground v.1.15,2013-05-18 08:07:00,
2013-05-18 03:11:00,53.8,49.4,30.08,ESE,114,0.0,0.0,85,0.00,,,0.00,0,Wunderground v.1.15,2013-05-18 08:11:00,
2013-05-18 03:12:00,53.8,49.4,30.08,ESE,114,0.0,0.0,85,0.00,,,0.00,0,Wunderground v.1.15,2013-05-18 08:12:00,
2013-05-18 03:14:00,53.7,49.3,30.08,ESE,114,0.0,0.0,85,0.00,,,0.00,0,Wunderground v.1.15,2013-05-18 08:14:00,
2013-05-18 03:18:00,53.7,49.3,30.08,ESE,114,0.0,0.0,85,0.00,,,0.00,0,Wunderground v.1.15,2013-05-18 08:18:00,
2013-05-18 03:19:00,53.7,49.3,30.07,ESE,114,0.0,0.0,85,0.00,,,0.00,0,Wunderground v.1.15,2013-05-18 08:19:00,
2013-05-18 03:20:00,53.7,49.3,30.07,ESE,114,0.0,0.0,85,0.00,,,0.00,0,Wunderground v.1.15,2013-05-18 08:20:00,
2013-05-18 03:21:00,53.6,49.2,30.07,ESE,114,0.0,0.0,85,0.00,,,0.00,0,Wunderground v.1.15,2013-05-18 08:21:00,
2013-05-18 03:23:00,53.6,49.2,30.07,ESE,114,0.0,0.0,85,0.00,,,0.00,0,Wunderground v.1.15,2013-05-18 08:23:00,
2013-05-18 03:26:00,53.5,49.1,30.07,ESE,114,0.0,1.0,85,0.00,,,0.00,0,Wunderground v.1.15,2013-05-18 08:26:00,
2013-05-18 03:27:00,53.5,49.1,30.07,ESE,114,0.0,1.0,85,0.00,,,0.00,0,Wunderground v.1.15,2013-05-18 08:27:00,
2013-05-18 03:28:00,53.4,49.0,30.07,ESE,114,0.0,1.0,85,0.00,,,0.00,0,Wunderground v.1.15,2013-05-18 08:28:00,
2013-05-18 03:29:00,53.4,49.0,30.07,ESE,114,0.0,1.0,85,0.00,,,0.00,0,Wunderground v.1.15,2013-05-18 08:29:00,
2013-05-18 03:30:00,53.3,48.9,30.07,ESE,114,0.0,0.0,85,0.00,,,0.00,0,Wunderground v.1.15,2013-05-18 08:30:00,
2013-05-18 03:35:00,53.3,48.9,30.07,ESE,114,0.0,0.0,85,0.00,,,0.00,0,Wunderground v.1.15,2013-05-18 08:35:00,
2013-05-18 03:36:00,53.3,48.9,30.07,ESE,114,0.0,0.0,85,0.00,,,0.00,0,Wunderground v.1.15,2013-05-18 08:36:00,
2013-05-18 03:37:00,53.2,48.8,30.07,ESE,114,0.0,1.0,85,0.00,,,0.00,0,Wunderground v.1.15,2013-05-18 08:37:00,
2013-05-18 03:40:00,53.1,48.4,30.07,South,177,0.0,0.0,84,0.00,,,0.00,0,Wunderground v.1.15,2013-05-18 08:40:00,
2013-05-18 03:41:00,53.1,48.4,30.06,South,175,0.0,0.0,84,0.00,,,0.00,0,Wunderground v.1.15,2013-05-18 08:41:00,
2013-05-18 03:45:00,53.0,48.3,30.06,South,175,0.0,0.0,84,0.00,,,0.00,0,Wunderground v.1.15,2013-05-18 08:45:00,
2013-05-18 03:46:00,53.0,48.3,30.06,South,175,0.0,0.0,84,0.00,,,0.00,0,Wunderground v.1.15,2013-05-18 08:46:00,
2013-05-18 03:47:00,52.9,48.2,30.06,South,175,0.0,2.0,84,0.00,,,0.00,0,Wunderground v.1.15,2013-05-18 08:47:00,
2013-05-18 03:48:00,52.9,48.2,30.06,South,174,1.0,2.0,84,0.00,,,0.00,0,Wunderground v.1.15,2013-05-18 08:48:00,
2013-05-18 03:49:00,52.9,48.2,30.06,SSE,164,1.0,5.0,84,0.00,,,0.00,0,Wunderground v.1.15,2013-05-18 08:49:00,
2013-05-18 03:52:00,52.9,48.2,30.06,SSE,157,1.0,4.0,84,0.00,,,0.00,0,Wunderground v.1.15,2013-05-18 08:52:00,
2013-05-18 03:53:00,52.9,48.2,30.06,SSE,157,1.0,4.0,84,0.00,,,0.00,0,Wunderground v.1.15,2013-05-18 08:53:00,
2013-05-18 03:55:00,52.9,48.2,30.06,SE,129,1.0,4.0,84,0.00,,,0.00,0,Wunderground v.1.15,2013-05-18 08:55:00,
2013-05-18 03:58:00,52.8,48.1,30.06,SE,142,1.0,4.0,84,0.00,,,0.00,0,Wunderground v.1.15,2013-05-18 08:58:00,
2013-05-18 04:00:00,52.8,48.1,30.06,SE,142,1.0,1.0,84,0.00,,,0.00,0,Wunderground v.1.15,2013-05-18 09:00:00,
2013-05-18 04:01:00,52.8,48.1,30.06,SE,142,1.0,1.0,84,0.00,,,0.00,0,Wunderground v.1.15,2013-05-18 09:01:00,
2013-05-18 04:03:00,52.8,48.1,30.06,SE,142,0.0,1.0,84,0.00,,,0.00,0,Wunderground v.1.15,2013-05-18 09:03:00,
2013-05-18 04:06:00,52.8,48.1,30.06,SE,142,0.0,1.0,84,0.00,,,0.00,0,Wunderground v.1.15,2013-05-18 09:06:00,
2013-05-18 04:08:00,52.8,48.1,30.06,SE,142,0.0,1.0,84,0.00,,,0.00,0,Wunderground v.1.15,2013-05-18 09:08:00,
2013-05-18 04:09:00,52.7,48.0,30.06,SE,142,0.0,1.0,84,0.00,,,0.00,0,Wunderground v.1.15,2013-05-18 09:09:00,
2013-05-18 04:10:00,52.7,48.0,30.06,SE,142,0.0,0.0,84,0.00,,,0.00,0,Wunderground v.1.15,2013-05-18 09:10:00,
2013-05-18 04:15:00,52.7,48.0,30.06,South,177,0.0,1.0,84,0.00,,,0.00,0,Wunderground v.1.15,2013-05-18 09:15:00,
2013-05-18 04:16:00,52.7,48.0,30.06,South,177,0.0,1.0,84,0.00,,,0.00,0,Wunderground v.1.15,2013-05-18 09:16:00,
2013-05-18 04:18:00,52.7,48.0,30.06,South,177,0.0,1.0,84,0.00,,,0.00,0,Wunderground v.1.15,2013-05-18 09:18:00,
2013-05-18 04:23:00,52.7,48.0,30.06,South,177,0.0,0.0,84,0.00,,,0.00,0,Wunderground v.1.15,2013-05-18 09:23:00,
2013-05-18 04:24:00,52.6,47.9,30.06,South,177,0.0,0.0,84,0.00,,,0.00,0,Wunderground v.1.15,2013-05-18 09:24:00,
2013-05-18 04:25:00,52.6,47.9,30.06,South,177,0.0,0.0,84,0.00,,,0.00,0,Wunderground v.1.15,2013-05-18 09:25:00,
2013-05-18 04:26:00,52.6,47.9,30.06,South,177,0.0,0.0,84,0.00,,,0.00,0,Wunderground v.1.15,2013-05-18 09:26:00,
2013-05-18 04:30:00,52.6,47.9,30.06,South,177,0.0,0.0,84,0.00,,,0.00,0,Wunderground v.1.15,2013-05-18 09:30:00,
2013-05-18 04:31:00,52.5,47.8,30.06,South,177,0.0,0.0,84,0.00,,,0.00,0,Wunderground v.1.15,2013-05-18 09:31:00,
2013-05-18 04:32:00,52.6,47.9,30.06,South,177,0.0,0.0,84,0.00,,,0.00,0,Wunderground v.1.15,2013-05-18 09:32:00,
2013-05-18 04:34:00,52.5,47.8,30.06,South,177,0.0,0.0,84,0.00,,,0.00,0,Wunderground v.1.15,2013-05-18 09:34:00,
2013-05-18 04:35:00,52.5,47.8,30.06,South,177,0.0,0.0,84,0.00,,,0.00,0,Wunderground v.1.15,2013-05-18 09:35:00,
2013-05-18 04:37:00,52.5,47.8,30.06,South,177,0.0,0.0,84,0.00,,,0.00,0,Wunderground v.1.15,2013-05-18 09:37:00,
2013-05-18 04:41:00,52.4,48.0,30.06,South,177,0.0,0.0,85,0.00,,,0.00,0,Wunderground v.1.15,2013-05-18 09:41:00,
2013-05-18 04:42:00,52.4,48.0,30.06,South,177,0.0,0.0,85,0.00,,,0.00,0,Wunderground v.1.15,2013-05-18 09:42:00,
2013-05-18 04:43:00,52.4,48.0,30.06,South,177,0.0,0.0,85,0.00,,,0.00,0,Wunderground v.1.15,2013-05-18 09:43:00,
2013-05-18 04:47:00,52.2,47.8,30.06,South,177,0.0,0.0,85,0.00,,,0.00,0,Wunderground v.1.15,2013-05-18 09:47:00,
2013-05-18 04:48:00,52.2,47.8,30.06,South,177,0.0,0.0,85,0.00,,,0.00,0,Wunderground v.1.15,2013-05-18 09:48:00,
2013-05-18 04:49:00,52.2,47.8,30.06,South,177,0.0,0.0,85,0.00,,,0.00,0,Wunderground v.1.15,2013-05-18 09:49:00,
2013-05-18 04:52:00,52.1,47.7,30.06,South,177,0.0,0.0,85,0.00,,,0.00,0,Wunderground v.1.15,2013-05-18 09:52:00,
2013-05-18 04:54:00,52.0,47.6,30.06,South,177,0.0,0.0,85,0.00,,,0.00,0,Wunderground v.1.15,2013-05-18 09:54:00,
2013-05-18 04:56:00,51.9,47.5,30.07,South,177,0.0,0.0,85,0.00,,,0.00,0,Wunderground v.1.15,2013-05-18 09:56:00,
2013-05-18 04:57:00,51.9,47.8,30.07,South,177,0.0,0.0,86,0.00,,,0.00,0,Wunderground v.1.15,2013-05-18 09:57:00,
2013-05-18 05:00:00,51.8,47.7,30.07,South,177,0.0,0.0,86,0.00,,,0.00,0,Wunderground v.1.15,2013-05-18 10:00:00,
2013-05-18 05:01:00,51.7,47.6,30.06,South,177,0.0,0.0,86,0.00,,,0.00,0,Wunderground v.1.15,2013-05-18 10:01:00,
2013-05-18 05:02:00,51.7,47.6,30.07,South,177,0.0,0.0,86,0.00,,,0.00,0,Wunderground v.1.15,2013-05-18 10:02:00,
2013-05-18 05:04:00,51.6,47.5,30.06,South,177,0.0,1.0,86,0.00,,,0.00,0,Wunderground v.1.15,2013-05-18 10:04:00,
2013-05-18 05:05:00,51.5,47.5,30.06,South,177,0.0,1.0,86,0.00,,,0.00,0,Wunderground v.1.15,2013-05-18 10:05:00,
2013-05-18 05:09:00,51.3,47.6,30.06,South,174,0.0,2.0,87,0.00,,,0.00,0,Wunderground v.1.15,2013-05-18 10:09:00,
2013-05-18 05:10:00,51.2,47.5,30.06,South,174,0.0,0.0,87,0.00,,,0.00,0,Wunderground v.1.15,2013-05-18 10:10:00,
2013-05-18 05:14:00,50.9,47.2,30.06,South,174,0.0,0.0,87,0.00,,,0.00,0,Wunderground v.1.15,2013-05-18 10:14:00,
2013-05-18 05:15:00,50.9,47.5,30.06,South,174,0.0,0.0,88,0.00,,,0.00,0,Wunderground v.1.15,2013-05-18 10:15:00,
2013-05-18 05:16:00,50.8,47.4,30.06,South,174,0.0,0.0,88,0.00,,,0.00,0,Wunderground v.1.15,2013-05-18 10:16:00,
2013-05-18 05:20:00,50.7,47.3,30.07,South,174,0.0,0.0,88,0.00,,,0.00,0,Wunderground v.1.15,2013-05-18 10:20:00,
2013-05-18 05:21:00,50.7,47.3,30.07,South,174,0.0,0.0,88,0.00,,,0.00,0,Wunderground v.1.15,2013-05-18 10:21:00,
2013-05-18 05:22:00,50.6,47.2,30.07,South,174,0.0,0.0,88,0.00,,,0.00,0,Wunderground v.1.15,2013-05-18 10:22:00,
2013-05-18 05:23:00,50.6,47.2,30.06,South,174,0.0,0.0,88,0.00,,,0.00,0,Wunderground v.1.15,2013-05-18 10:23:00,
2013-05-18 05:26:00,50.6,47.5,30.06,South,174,0.0,0.0,89,0.00,,,0.00,0,Wunderground v.1.15,2013-05-18 10:26:00,
2013-05-18 05:27:00,50.6,47.5,30.07,South,174,0.0,0.0,89,0.00,,,0.00,0,Wunderground v.1.15,2013-05-18 10:27:00,
2013-05-18 05:28:00,50.5,47.4,30.07,South,174,0.0,0.0,89,0.00,,,0.00,0,Wunderground v.1.15,2013-05-18 10:28:00,
2013-05-18 05:32:00,50.5,47.4,30.07,South,174,0.0,0.0,89,0.00,,,0.00,0,Wunderground v.1.15,2013-05-18 10:32:00,
2013-05-18 05:34:00,50.4,47.3,30.07,South,174,0.0,0.0,89,0.00,,,0.00,0,Wunderground v.1.15,2013-05-18 10:34:00,
2013-05-18 05:39:00,50.3,47.2,30.07,South,174,0.0,0.0,89,0.00,,,0.00,5,Wunderground v.1.15,2013-05-18 10:39:00,
2013-05-18 05:40:00,50.3,47.2,30.07,South,174,0.0,0.0,89,0.00,,,0.00,5,Wunderground v.1.15,2013-05-18 10:40:00,
2013-05-18 05:41:00,50.3,47.2,30.07,South,174,0.0,0.0,89,0.00,,,0.00,5,Wunderground v.1.15,2013-05-18 10:41:00,
2013-05-18 05:44:00,50.3,47.2,30.07,South,174,0.0,0.0,89,0.00,,,0.00,7,Wunderground v.1.15,2013-05-18 10:44:00,
2013-05-18 05:49:00,50.1,47.0,30.07,South,174,0.0,0.0,89,0.00,,,0.00,9,Wunderground v.1.15,2013-05-18 10:49:00,
2013-05-18 05:50:00,50.1,47.0,30.07,South,174,0.0,0.0,89,0.00,,,0.00,11,Wunderground v.1.15,2013-05-18 10:50:00,
2013-05-18 05:51:00,50.0,46.9,30.07,South,174,0.0,0.0,89,0.00,,,0.00,12,Wunderground v.1.15,2013-05-18 10:51:00,
2013-05-18 05:55:00,49.9,46.8,30.07,South,174,0.0,0.0,89,0.00,,,0.00,14,Wunderground v.1.15,2013-05-18 10:55:00,
2013-05-18 05:57:00,49.9,47.1,30.07,South,174,0.0,0.0,90,0.00,,,0.00,16,Wunderground v.1.15,2013-05-18 10:57:00,
2013-05-18 05:59:00,49.8,47.0,30.07,South,174,0.0,0.0,90,0.00,,,0.00,19,Wunderground v.1.15,2013-05-18 10:59:00,
2013-05-18 06:00:00,49.8,47.0,30.07,South,174,0.0,0.0,90,0.00,,,0.00,21,Wunderground v.1.15,2013-05-18 11:00:00,
2013-05-18 06:03:00,49.7,46.9,30.07,South,174,0.0,0.0,90,0.00,,,0.00,25,Wunderground v.1.15,2013-05-18 11:03:00,
2013-05-18 06:04:00,49.7,46.9,30.07,South,174,0.0,0.0,90,0.00,,,0.00,26,Wunderground v.1.15,2013-05-18 11:04:00,
2013-05-18 06:05:00,49.7,46.9,30.07,South,174,0.0,0.0,90,0.00,,,0.00,26,Wunderground v.1.15,2013-05-18 11:05:00,
2013-05-18 06:06:00,49.7,46.9,30.07,South,174,0.0,0.0,90,0.00,,,0.00,28,Wunderground v.1.15,2013-05-18 11:06:00,
2013-05-18 06:08:00,49.6,46.8,30.07,South,174,0.0,0.0,90,0.00,,,0.00,32,Wunderground v.1.15,2013-05-18 11:08:00,
2013-05-18 06:11:00,49.6,46.8,30.07,South,174,0.0,0.0,90,0.00,,,0.00,33,Wunderground v.1.15,2013-05-18 11:11:00,
2013-05-18 06:12:00,49.6,46.8,30.07,South,174,0.0,0.0,90,0.00,,,0.00,35,Wunderground v.1.15,2013-05-18 11:12:00,
2013-05-18 06:16:00,49.6,47.1,30.07,South,174,0.0,0.0,91,0.00,,,0.00,40,Wunderground v.1.15,2013-05-18 11:16:00,
2013-05-18 06:17:00,49.6,47.1,30.07,South,174,0.0,0.0,91,0.00,,,0.00,42,Wunderground v.1.15,2013-05-18 11:17:00,
2013-05-18 06:21:00,49.6,47.1,30.08,South,174,0.0,0.0,91,0.00,,,0.00,47,Wunderground v.1.15,2013-05-18 11:21:00,
2013-05-18 06:22:00,49.5,47.0,30.08,South,174,0.0,0.0,91,0.00,,,0.00,49,Wunderground v.1.15,2013-05-18 11:22:00,
2013-05-18 06:24:00,49.6,47.1,30.08,South,174,0.0,0.0,91,0.00,,,0.00,51,Wunderground v.1.15,2013-05-18 11:24:00,
2013-05-18 06:25:00,49.6,47.1,30.08,South,174,0.0,0.0,91,0.00,,,0.00,54,Wunderground v.1.15,2013-05-18 11:25:00,
2013-05-18 06:28:00,49.6,47.1,30.08,South,174,0.0,0.0,91,0.00,,,0.00,60,Wunderground v.1.15,2013-05-18 11:28:00,
2013-05-18 06:29:00,49.6,47.1,30.08,South,174,0.0,0.0,91,0.00,,,0.00,60,Wunderground v.1.15,2013-05-18 11:29:00,
2013-05-18 06:30:00,49.6,47.1,30.08,South,174,0.0,0.0,91,0.00,,,0.00,62,Wunderground v.1.15,2013-05-18 11:30:00,
2013-05-18 06:32:00,49.6,47.1,30.08,South,174,0.0,0.0,91,0.00,,,0.00,63,Wunderground v.1.15,2013-05-18 11:32:00,
2013-05-18 06:34:00,49.6,47.1,30.08,South,174,0.0,0.0,91,0.00,,,0.00,67,Wunderground v.1.15,2013-05-18 11:34:00,
2013-05-18 06:36:00,49.6,47.1,30.08,South,174,0.0,0.0,91,0.00,,,0.00,70,Wunderground v.1.15,2013-05-18 11:36:00,
2013-05-18 06:38:00,49.7,47.2,30.08,South,174,0.0,0.0,91,0.00,,,0.00,74,Wunderground v.1.15,2013-05-18 11:38:00,
2013-05-18 06:42:00,49.8,47.6,30.08,South,174,0.0,0.0,92,0.00,,,0.00,79,Wunderground v.1.15,2013-05-18 11:42:00,
2013-05-18 06:43:00,49.9,47.7,30.08,South,174,0.0,0.0,92,0.00,,,0.00,81,Wunderground v.1.15,2013-05-18 11:43:00,
2013-05-18 06:45:00,49.9,47.7,30.08,South,174,0.0,0.0,92,0.00,,,0.00,83,Wunderground v.1.15,2013-05-18 11:45:00,
2013-05-18 06:46:00,49.9,47.7,30.08,South,174,0.0,0.0,92,0.00,,,0.00,83,Wunderground v.1.15,2013-05-18 11:46:00,
2013-05-18 06:50:00,50.0,47.8,30.08,South,174,0.0,0.0,92,0.00,,,0.00,91,Wunderground v.1.15,2013-05-18 11:50:00,
2013-05-18 06:51:00,50.0,47.8,30.08,South,174,0.0,0.0,92,0.00,,,0.00,93,Wunderground v.1.15,2013-05-18 11:51:00,
2013-05-18 06:52:00,50.0,47.8,30.08,South,174,0.0,0.0,92,0.00,,,0.00,95,Wunderground v.1.15,2013-05-18 11:52:00,
2013-05-18 06:57:00,50.1,47.9,30.08,South,174,0.0,0.0,92,0.00,,,0.00,109,Wunderground v.1.15,2013-05-18 11:57:00,
2013-05-18 06:58:00,50.2,48.0,30.08,South,174,0.0,0.0,92,0.00,,,0.00,111,Wunderground v.1.15,2013-05-18 11:58:00,
2013-05-18 07:00:00,50.3,48.1,30.08,South,174,0.0,0.0,92,0.00,,,0.00,116,Wunderground v.1.15,2013-05-18 12:00:00,
2013-05-18 07:02:00,50.3,48.1,30.08,South,174,0.0,0.0,92,0.00,,,0.00,130,Wunderground v.1.15,2013-05-18 12:02:00,
2013-05-18 07:04:00,50.5,48.3,30.08,South,174,0.0,0.0,92,0.00,,,0.00,135,Wunderground v.1.15,2013-05-18 12:04:00,
2013-05-18 07:05:00,50.6,48.4,30.08,South,174,0.0,0.0,92,0.00,,,0.00,142,Wunderground v.1.15,2013-05-18 12:05:00,
2013-05-18 07:06:00,50.6,48.4,30.08,South,174,0.0,0.0,92,0.00,,,0.00,153,Wunderground v.1.15,2013-05-18 12:06:00,
2013-05-18 07:10:00,50.8,48.6,30.08,South,174,0.0,0.0,92,0.00,,,0.00,141,Wunderground v.1.15,2013-05-18 12:10:00,
2013-05-18 07:12:00,51.0,48.8,30.08,South,174,0.0,1.0,92,0.00,,,0.00,148,Wunderground v.1.15,2013-05-18 12:12:00,
2013-05-18 07:14:00,51.0,48.8,30.08,South,174,0.0,1.0,92,0.00,,,0.00,158,Wunderground v.1.15,2013-05-18 12:14:00,
2013-05-18 07:16:00,51.2,49.0,30.08,South,174,0.0,1.0,92,0.00,,,0.00,144,Wunderground v.1.15,2013-05-18 12:16:00,
2013-05-18 07:19:00,51.4,49.2,30.08,South,174,0.0,1.0,92,0.00,,,0.00,141,Wunderground v.1.15,2013-05-18 12:19:00,
2013-05-18 07:21:00,51.5,49.3,30.08,South,174,0.0,0.0,92,0.00,,,0.00,146,Wunderground v.1.15,2013-05-18 12:21:00,
2013-05-18 07:22:00,51.6,49.4,30.08,South,174,0.0,0.0,92,0.00,,,0.00,148,Wunderground v.1.15,2013-05-18 12:22:00,
2013-05-18 07:24:00,51.7,49.5,30.08,South,174,0.0,0.0,92,0.00,,,0.00,151,Wunderground v.1.15,2013-05-18 12:24:00,
2013-05-18 07:27:00,51.9,49.6,30.08,South,174,0.0,0.0,92,0.00,,,0.00,135,Wunderground v.1.15,2013-05-18 12:27:00,
2013-05-18 07:29:00,52.0,49.7,30.08,South,174,0.0,0.0,92,0.00,,,0.00,127,Wunderground v.1.15,2013-05-18 12:29:00,
2013-05-18 07:30:00,52.1,49.8,30.08,South,174,0.0,0.0,92,0.00,,,0.00,125,Wunderground v.1.15,2013-05-18 12:30:00,
2013-05-18 07:31:00,52.2,49.7,30.08,South,174,0.0,0.0,91,0.00,,,0.00,125,Wunderground v.1.15,2013-05-18 12:31:00,
2013-05-18 07:32:00,52.2,49.7,30.08,South,174,0.0,0.0,91,0.00,,,0.00,123,Wunderground v.1.15,2013-05-18 12:32:00,
2013-05-18 07:33:00,52.3,49.8,30.08,South,174,0.0,0.0,91,0.00,,,0.00,121,Wunderground v.1.15,2013-05-18 12:33:00,
2013-05-18 07:35:00,52.5,49.9,30.07,South,174,0.0,0.0,91,0.00,,,0.00,121,Wunderground v.1.15,2013-05-18 12:35:00,
2013-05-18 07:37:00,52.6,49.8,30.07,South,174,0.0,0.0,90,0.00,,,0.00,120,Wunderground v.1.15,2013-05-18 12:37:00,
2013-05-18 07:39:00,52.7,49.8,30.07,South,174,0.0,1.0,90,0.00,,,0.00,120,Wunderground v.1.15,2013-05-18 12:39:00,
2013-05-18 07:40:00,52.8,49.9,30.07,South,174,0.0,0.0,90,0.00,,,0.00,118,Wunderground v.1.15,2013-05-18 12:40:00,
2013-05-18 07:43:00,52.9,49.7,30.07,South,174,0.0,0.0,89,0.00,,,0.00,116,Wunderground v.1.15,2013-05-18 12:43:00,
2013-05-18 07:45:00,53.0,49.8,30.07,South,174,0.0,0.0,89,0.00,,,0.00,116,Wunderground v.1.15,2013-05-18 12:45:00,
2013-05-18 07:46:00,53.1,49.9,30.07,South,174,0.0,0.0,89,0.00,,,0.00,114,Wunderground v.1.15,2013-05-18 12:46:00,
2013-05-18 07:47:00,53.1,49.9,30.07,South,174,0.0,0.0,89,0.00,,,0.00,116,Wunderground v.1.15,2013-05-18 12:47:00,
2013-05-18 07:49:00,53.2,50.0,30.07,South,174,0.0,0.0,89,0.00,,,0.00,120,Wunderground v.1.15,2013-05-18 12:49:00,
2013-05-18 07:52:00,53.3,49.8,30.07,South,174,0.0,0.0,88,0.00,,,0.00,127,Wunderground v.1.15,2013-05-18 12:52:00,
2013-05-18 07:54:00,53.3,49.8,30.07,South,174,0.0,0.0,88,0.00,,,0.00,127,Wunderground v.1.15,2013-05-18 12:54:00,
2013-05-18 07:55:00,53.4,49.9,30.07,South,174,0.0,0.0,88,0.00,,,0.00,134,Wunderground v.1.15,2013-05-18 12:55:00,
2013-05-18 07:56:00,53.4,49.9,30.07,South,174,0.0,0.0,88,0.00,,,0.00,135,Wunderground v.1.15,2013-05-18 12:56:00,
2013-05-18 07:59:00,53.6,50.1,30.07,South,174,0.0,0.0,88,0.00,,,0.00,135,Wunderground v.1.15,2013-05-18 12:59:00,
2013-05-18 08:00:00,53.7,50.2,30.07,South,174,0.0,0.0,88,0.00,,,0.00,130,Wunderground v.1.15,2013-05-18 13:00:00,
2013-05-18 08:04:00,53.9,50.1,30.07,South,174,0.0,0.0,87,0.00,,,0.00,155,Wunderground v.1.15,2013-05-18 13:04:00,
2013-05-18 08:05:00,53.9,50.1,30.07,South,174,0.0,0.0,87,0.00,,,0.00,160,Wunderground v.1.15,2013-05-18 13:05:00,
2013-05-18 08:06:00,54.0,50.2,30.07,South,174,0.0,0.0,87,0.00,,,0.00,174,Wunderground v.1.15,2013-05-18 13:06:00,
2013-05-18 08:08:00,54.1,50.3,30.07,South,174,0.0,0.0,87,0.00,,,0.00,193,Wunderground v.1.15,2013-05-18 13:08:00,
2013-05-18 08:10:00,54.2,50.4,30.07,South,174,0.0,0.0,87,0.00,,,0.00,211,Wunderground v.1.15,2013-05-18 13:10:00,
2013-05-18 08:13:00,54.5,50.4,30.07,South,174,0.0,0.0,86,0.00,,,0.00,237,Wunderground v.1.15,2013-05-18 13:13:00,
2013-05-18 08:16:00,54.7,50.6,30.07,South,174,0.0,0.0,86,0.00,,,0.00,239,Wunderground v.1.15,2013-05-18 13:16:00,
2013-05-18 08:18:00,54.9,50.8,30.07,South,174,0.0,0.0,86,0.00,,,0.00,281,Wunderground v.1.15,2013-05-18 13:18:00,
2013-05-18 08:19:00,55.0,50.9,30.07,South,174,0.0,0.0,86,0.00,,,0.00,283,Wunderground v.1.15,2013-05-18 13:19:00,
2013-05-18 08:20:00,55.1,51.0,30.07,South,174,0.0,0.0,86,0.00,,,0.00,297,Wunderground v.1.15,2013-05-18 13:20:00,
2013-05-18 08:22:00,55.4,51.0,30.07,South,174,0.0,0.0,85,0.00,,,0.00,315,Wunderground v.1.15,2013-05-18 13:22:00,
2013-05-18 08:24:00,55.7,51.3,30.07,South,174,0.0,0.0,85,0.00,,,0.00,264,Wunderground v.1.15,2013-05-18 13:24:00,
2013-05-18 08:27:00,56.0,51.2,30.07,South,172,0.0,1.0,84,0.00,,,0.00,287,Wunderground v.1.15,2013-05-18 13:27:00,
2013-05-18 08:28:00,56.1,51.3,30.07,South,171,0.0,2.0,84,0.00,,,0.00,221,Wunderground v.1.15,2013-05-18 13:28:00,
2013-05-18 08:30:00,56.3,51.2,30.07,South,171,0.0,0.0,83,0.00,,,0.00,244,Wunderground v.1.15,2013-05-18 13:30:00,
2013-05-18 08:31:00,56.3,51.2,30.07,South,171,0.0,0.0,83,0.00,,,0.00,292,Wunderground v.1.15,2013-05-18 13:31:00,
2013-05-18 08:34:00,56.6,51.5,30.07,South,171,0.0,0.0,83,0.00,,,0.00,276,Wunderground v.1.15,2013-05-18 13:34:00,
2013-05-18 08:35:00,56.6,51.5,30.07,South,171,0.0,0.0,83,0.00,,,0.00,274,Wunderground v.1.15,2013-05-18 13:35:00,
2013-05-18 08:36:00,56.7,51.6,30.07,South,171,0.0,0.0,83,0.00,,,0.00,287,Wunderground v.1.15,2013-05-18 13:36:00,
2013-05-18 08:38:00,56.9,51.5,30.07,SSE,159,0.0,5.0,82,0.00,,,0.00,283,Wunderground v.1.15,2013-05-18 13:38:00,
2013-05-18 08:39:00,57.0,51.6,30.07,SSE,159,1.0,5.0,82,0.00,,,0.00,276,Wunderground v.1.15,2013-05-18 13:39:00,
2013-05-18 08:44:00,57.2,51.4,30.08,NE,53,1.0,3.0,81,0.00,,,0.00,334,Wunderground v.1.15,2013-05-18 13:44:00,
2013-05-18 08:45:00,57.3,51.5,30.07,ESE,115,1.0,5.0,81,0.00,,,0.00,309,Wunderground v.1.15,2013-05-18 13:45:00,
2013-05-18 08:49:00,57.4,51.3,30.07,ESE,119,2.0,5.0,80,0.00,,,0.00,343,Wunderground v.1.15,2013-05-18 13:49:00,
2013-05-18 08:50:00,57.6,51.8,30.07,ESE,119,1.0,1.0,81,0.00,,,0.00,320,Wunderground v.1.15,2013-05-18 13:50:00,
2013-05-18 08:54:00,57.9,51.8,30.07,ESE,119,1.0,2.0,80,0.00,,,0.00,323,Wunderground v.1.15,2013-05-18 13:54:00,
2013-05-18 08:55:00,58.0,51.9,30.07,ESE,121,1.0,4.0,80,0.00,,,0.00,348,Wunderground v.1.15,2013-05-18 13:55:00,
2013-05-18 08:57:00,58.0,51.9,30.07,ESE,121,1.0,4.0,80,0.00,,,0.00,364,Wunderground v.1.15,2013-05-18 13:57:00,
2013-05-18 08:59:00,58.2,52.1,30.07,SE,145,1.0,4.0,80,0.00,,,0.00,406,Wunderground v.1.15,2013-05-18 13:59:00,
2013-05-18 09:01:00,58.3,52.2,30.07,ESE,121,2.0,6.0,80,0.00,,,0.00,403,Wunderground v.1.15,2013-05-18 14:01:00,
2013-05-18 09:03:00,58.4,52.3,30.08,SE,130,3.0,6.0,80,0.00,,,0.00,334,Wunderground v.1.15,2013-05-18 14:03:00,
2013-05-18 09:04:00,58.4,52.3,30.08,SE,126,3.0,6.0,80,0.00,,,0.00,424,Wunderground v.1.15,2013-05-18 14:04:00,
2013-05-18 09:05:00,58.5,52.4,30.08,ENE,63,3.0,6.0,80,0.00,,,0.00,417,Wunderground v.1.15,2013-05-18 14:05:00,
2013-05-18 09:07:00,58.6,52.4,30.08,ENE,63,3.0,6.0,80,0.00,,,0.00,434,Wunderground v.1.15,2013-05-18 14:07:00,
2013-05-18 09:08:00,58.7,52.5,30.08,ENE,63,3.0,6.0,80,0.00,,,0.00,415,Wunderground v.1.15,2013-05-18 14:08:00,
2013-05-18 09:09:00,58.9,52.7,30.08,ENE,62,2.0,6.0,80,0.00,,,0.00,383,Wunderground v.1.15,2013-05-18 14:09:00,
2013-05-18 09:10:00,59.1,52.9,30.08,ENE,64,2.0,2.0,80,0.00,,,0.00,411,Wunderground v.1.15,2013-05-18 14:10:00,
2013-05-18 09:11:00,59.3,53.1,30.08,ENE,64,2.0,2.0,80,0.00,,,0.00,564,Wunderground v.1.15,2013-05-18 14:11:00,
2013-05-18 09:13:00,59.9,53.4,30.08,ENE,64,1.0,2.0,79,0.00,,,0.00,555,Wunderground v.1.15,2013-05-18 14:13:00,
2013-05-18 09:16:00,60.5,53.6,30.08,ENE,63,0.0,2.0,78,0.00,,,0.00,452,Wunderground v.1.15,2013-05-18 14:16:00,
2013-05-18 09:17:00,60.7,53.8,30.08,ENE,63,0.0,3.0,78,0.00,,,0.00,480,Wunderground v.1.15,2013-05-18 14:17:00,
2013-05-18 09:19:00,60.9,53.6,30.08,ESE,119,1.0,4.0,77,0.00,,,0.00,476,Wunderground v.1.15,2013-05-18 14:19:00,
2013-05-18 09:23:00,61.4,53.8,30.08,South,190,1.0,1.0,76,0.00,,,0.00,448,Wunderground v.1.15,2013-05-18 14:23:00,
2013-05-18 09:25:00,61.5,53.9,30.08,SSE,149,1.0,1.0,76,0.00,,,0.00,441,Wunderground v.1.15,2013-05-18 14:25:00,
2013-05-18 09:27:00,61.6,53.6,30.08,SSE,154,2.0,2.0,75,0.00,,,0.00,404,Wunderground v.1.15,2013-05-18 14:27:00,
2013-05-18 09:29:00,61.6,53.6,30.08,SSE,154,1.0,5.0,75,0.00,,,0.00,519,Wunderground v.1.15,2013-05-18 14:29:00,
2013-05-18 09:30:00,61.7,53.7,30.08,East,94,2.0,2.0,75,0.00,,,0.00,592,Wunderground v.1.15,2013-05-18 14:30:00,
2013-05-18 09:31:00,61.7,53.7,30.08,East,96,2.0,2.0,75,0.00,,,0.00,512,Wunderground v.1.15,2013-05-18 14:31:00,
2013-05-18 09:34:00,61.9,54.2,30.08,East,96,2.0,4.0,76,0.00,,,0.00,573,Wunderground v.1.15,2013-05-18 14:34:00,
2013-05-18 09:36:00,62.1,54.4,30.08,ESE,119,2.0,4.0,76,0.00,,,0.00,668,Wunderground v.1.15,2013-05-18 14:36:00,
2013-05-18 09:37:00,62.1,54.4,30.08,ENE,57,2.0,4.0,76,0.00,,,0.00,636,Wunderground v.1.15,2013-05-18 14:37:00,
2013-05-18 09:41:00,62.3,54.3,30.08,ESE,105,2.0,4.0,75,0.00,,,0.00,536,Wunderground v.1.15,2013-05-18 14:41:00,
2013-05-18 09:42:00,62.4,54.7,30.08,ENE,78,3.0,4.0,76,0.00,,,0.00,459,Wunderground v.1.15,2013-05-18 14:42:00,
2013-05-18 09:44:00,62.5,54.5,30.08,East,87,3.0,4.0,75,0.00,,,0.00,624,Wunderground v.1.15,2013-05-18 14:44:00,
2013-05-18 09:45:00,62.8,54.8,30.08,SSE,168,2.0,4.0,75,0.00,,,0.00,594,Wunderground v.1.15,2013-05-18 14:45:00,
2013-05-18 09:46:00,63.0,54.9,30.08,SSE,168,2.0,4.0,75,0.00,,,0.00,657,Wunderground v.1.15,2013-05-18 14:46:00,
2013-05-18 09:50:00,63.3,54.9,30.08,SE,132,2.0,2.0,74,0.00,,,0.00,638,Wunderground v.1.15,2013-05-18 14:50:00,
2013-05-18 09:51:00,63.4,55.0,30.08,SE,132,2.0,2.0,74,0.00,,,0.00,635,Wunderground v.1.15,2013-05-18 14:51:00,
2013-05-18 09:53:00,63.6,55.2,30.08,SE,132,2.0,2.0,74,0.00,,,0.00,668,Wunderground v.1.15,2013-05-18 14:53:00,
2013-05-18 09:55:00,63.9,55.4,30.08,SE,132,2.0,2.0,74,0.00,,,0.00,679,Wunderground v.1.15,2013-05-18 14:55:00,
2013-05-18 09:58:00,64.5,56.0,30.08,ENE,74,1.0,3.0,74,0.00,,,0.00,668,Wunderground v.1.15,2013-05-18 14:58:00,
2013-05-18 09:59:00,64.6,56.1,30.08,NE,56,1.0,7.0,74,0.00,,,0.00,682,Wunderground v.1.15,2013-05-18 14:59:00,
2013-05-18 10:02:00,65.0,55.8,30.07,East,90,2.0,4.0,72,0.00,,,0.00,703,Wunderground v.1.15,2013-05-18 15:02:00,
2013-05-18 10:04:00,65.1,55.8,30.07,ENE,63,2.0,4.0,72,0.00,,,0.00,694,Wunderground v.1.15,2013-05-18 15:04:00,
2013-05-18 10:05:00,65.2,55.9,30.07,NE,55,2.0,5.0,72,0.00,,,0.00,677,Wunderground v.1.15,2013-05-18 15:05:00,
2013-05-18 10:07:00,65.4,56.5,30.07,SE,143,3.0,5.0,73,0.00,,,0.00,707,Wunderground v.1.15,2013-05-18 15:07:00,
2013-05-18 10:09:00,65.6,56.3,30.07,SE,124,3.0,5.0,72,0.00,,,0.00,696,Wunderground v.1.15,2013-05-18 15:09:00,
2013-05-18 10:10:00,65.6,56.3,30.07,SE,132,3.0,6.0,72,0.00,,,0.00,724,Wunderground v.1.15,2013-05-18 15:10:00,
2013-05-18 10:12:00,65.6,56.3,30.07,ESE,118,3.0,6.0,72,0.00,,,0.00,740,Wunderground v.1.15,2013-05-18 15:12:00,
2013-05-18 10:16:00,65.6,56.3,30.07,ESE,112,3.0,7.0,72,0.00,,,0.00,747,Wunderground v.1.15,2013-05-18 15:16:00,
2013-05-18 10:17:00,65.6,56.3,30.07,ESE,112,3.0,7.0,72,0.00,,,0.00,729,Wunderground v.1.15,2013-05-18 15:17:00,
2013-05-18 10:19:00,65.9,57.4,30.07,ESE,112,3.0,7.0,74,0.00,,,0.00,724,Wunderground v.1.15,2013-05-18 15:19:00,
2013-05-18 10:22:00,66.7,57.0,30.07,ENE,67,2.0,5.0,71,0.00,,,0.00,684,Wunderground v.1.15,2013-05-18 15:22:00,
2013-05-18 10:23:00,66.9,57.2,30.07,ENE,78,2.0,5.0,71,0.00,,,0.00,666,Wunderground v.1.15,2013-05-18 15:23:00,
2013-05-18 10:25:00,67.0,57.3,30.07,NE,45,2.0,5.0,71,0.00,,,0.00,682,Wunderground v.1.15,2013-05-18 15:25:00,
2013-05-18 10:27:00,67.1,57.0,30.07,East,86,2.0,5.0,70,0.00,,,0.00,686,Wunderground v.1.15,2013-05-18 15:27:00,
2013-05-18 10:28:00,67.2,57.1,30.07,ESE,103,2.0,5.0,70,0.00,,,0.00,675,Wunderground v.1.15,2013-05-18 15:28:00,
2013-05-18 10:30:00,67.2,57.1,30.06,SSE,160,3.0,3.0,70,0.00,,,0.00,675,Wunderground v.1.15,2013-05-18 15:30:00,
2013-05-18 10:32:00,67.1,57.0,30.06,ESE,122,2.0,6.0,70,0.00,,,0.00,649,Wunderground v.1.15,2013-05-18 15:32:00,
2013-05-18 10:34:00,67.1,57.4,30.07,ESE,122,2.0,6.0,71,0.00,,,0.00,640,Wunderground v.1.15,2013-05-18 15:34:00,
2013-05-18 10:36:00,67.2,57.5,30.07,NE,54,2.0,6.0,71,0.00,,,0.00,622,Wunderground v.1.15,2013-05-18 15:36:00,
2013-05-18 10:38:00,67.5,57.8,30.07,SE,137,2.0,6.0,71,0.00,,,0.00,635,Wunderground v.1.15,2013-05-18 15:38:00,
2013-05-18 10:40:00,67.6,57.9,30.06,ESE,103,2.0,2.0,71,0.00,,,0.00,664,Wunderground v.1.15,2013-05-18 15:40:00,
2013-05-18 10:42:00,68.0,57.8,30.06,NE,50,1.0,2.0,70,0.00,,,0.00,691,Wunderground v.1.15,2013-05-18 15:42:00,
2013-05-18 10:43:00,68.1,57.9,30.06,NE,53,1.0,3.0,70,0.00,,,0.00,729,Wunderground v.1.15,2013-05-18 15:43:00,
2013-05-18 10:44:00,68.2,58.0,30.06,SE,128,2.0,6.0,70,0.00,,,0.00,729,Wunderground v.1.15,2013-05-18 15:44:00,
2013-05-18 10:45:00,68.3,58.5,30.06,SE,132,2.0,6.0,71,0.00,,,0.00,729,Wunderground v.1.15,2013-05-18 15:45:00,
2013-05-18 10:46:00,68.2,58.0,30.06,SE,125,2.0,6.0,70,0.00,,,0.00,737,Wunderground v.1.15,2013-05-18 15:46:00,
2013-05-18 10:49:00,68.2,58.4,30.06,SE,139,2.0,6.0,71,0.00,,,0.00,749,Wunderground v.1.15,2013-05-18 15:49:00,
2013-05-18 10:51:00,68.3,58.5,30.06,ESE,118,2.0,5.0,71,0.00,,,0.00,737,Wunderground v.1.15,2013-05-18 15:51:00,
2013-05-18 10:55:00,68.8,59.0,30.06,SE,129,2.0,5.0,71,0.00,,,0.00,777,Wunderground v.1.15,2013-05-18 15:55:00,
2013-05-18 10:56:00,68.8,58.6,30.06,ENE,61,2.0,5.0,70,0.00,,,0.00,773,Wunderground v.1.15,2013-05-18 15:56:00,
2013-05-18 10:58:00,68.9,58.7,30.06,ENE,61,2.0,5.0,70,0.00,,,0.00,770,Wunderground v.1.15,2013-05-18 15:58:00,
2013-05-18 10:59:00,68.9,58.7,30.06,ENE,74,2.0,5.0,70,0.00,,,0.00,768,Wunderground v.1.15,2013-05-18 15:59:00,
2013-05-18 11:00:00,69.0,58.8,30.06,NNE,32,2.0,2.0,70,0.00,,,0.00,772,Wunderground v.1.15,2013-05-18 16:00:00,
2013-05-18 11:01:00,69.0,58.8,30.06,ESE,108,2.0,2.0,70,0.00,,,0.00,765,Wunderground v.1.15,2013-05-18 16:01:00,
2013-05-18 11:04:00,69.2,59.4,30.06,East,96,3.0,4.0,71,0.00,,,0.00,786,Wunderground v.1.15,2013-05-18 16:04:00,
2013-05-18 11:05:00,69.3,59.5,30.06,ENE,78,3.0,4.0,71,0.00,,,0.00,784,Wunderground v.1.15,2013-05-18 16:05:00,
2013-05-18 11:08:00,69.4,58.8,30.06,ENE,76,3.0,4.0,69,0.00,,,0.00,775,Wunderground v.1.15,2013-05-18 16:08:00,
2013-05-18 11:10:00,69.5,59.3,30.06,ENE,75,3.0,3.0,70,0.00,,,0.00,772,Wunderground v.1.15,2013-05-18 16:10:00,
2013-05-18 11:12:00,69.9,59.3,30.06,NE,46,2.0,3.0,69,0.00,,,0.00,784,Wunderground v.1.15,2013-05-18 16:12:00,
2013-05-18 11:14:00,70.0,59.4,30.06,ENE,76,2.0,3.0,69,0.00,,,0.00,803,Wunderground v.1.15,2013-05-18 16:14:00,
2013-05-18 11:15:00,70.0,59.4,30.06,ENE,57,2.0,3.0,69,0.00,,,0.00,789,Wunderground v.1.15,2013-05-18 16:15:00,
2013-05-18 11:17:00,70.0,59.4,30.06,NE,49,2.0,3.0,69,0.00,,,0.00,770,Wunderground v.1.15,2013-05-18 16:17:00,
2013-05-18 11:19:00,70.0,59.8,30.06,NE,46,1.0,3.0,70,0.00,,,0.00,782,Wunderground v.1.15,2013-05-18 16:19:00,
2013-05-18 11:21:00,70.4,60.5,30.06,East,91,1.0,1.0,71,0.00,,,0.00,784,Wunderground v.1.15,2013-05-18 16:21:00,
2013-05-18 11:22:00,70.6,60.3,30.06,East,91,1.0,1.0,70,0.00,,,0.00,786,Wunderground v.1.15,2013-05-18 16:22:00,
2013-05-18 11:24:00,71.2,60.9,30.06,South,177,1.0,1.0,70,0.00,,,0.00,752,Wunderground v.1.15,2013-05-18 16:24:00,
2013-05-18 11:26:00,71.7,61.0,30.06,South,177,1.0,1.0,69,0.00,,,0.00,763,Wunderground v.1.15,2013-05-18 16:26:00,
2013-05-18 11:29:00,71.7,60.6,30.06,ENE,76,1.0,3.0,68,0.00,,,0.00,749,Wunderground v.1.15,2013-05-18 16:29:00,
2013-05-18 11:30:00,71.8,61.1,30.06,NE,51,1.0,4.0,69,0.00,,,0.00,770,Wunderground v.1.15,2013-05-18 16:30:00,
2013-05-18 11:32:00,71.8,60.7,30.06,NE,51,1.0,4.0,68,0.00,,,0.00,780,Wunderground v.1.15,2013-05-18 16:32:00,
2013-05-18 11:34:00,71.8,60.2,30.06,SSE,151,1.0,7.0,67,0.00,,,0.00,817,Wunderground v.1.15,2013-05-18 16:34:00,
2013-05-18 11:35:00,71.7,60.6,30.06,SSE,150,2.0,7.0,68,0.00,,,0.00,842,Wunderground v.1.15,2013-05-18 16:35:00,
2013-05-18 11:36:00,71.6,60.5,30.05,South,180,2.0,7.0,68,0.00,,,0.00,847,Wunderground v.1.15,2013-05-18 16:36:00,
2013-05-18 11:37:00,71.6,60.9,30.05,NE,56,2.0,7.0,69,0.00,,,0.00,849,Wunderground v.1.15,2013-05-18 16:37:00,
2013-05-18 11:41:00,72.4,60.8,30.05,East,94,2.0,2.0,67,0.00,,,0.00,838,Wunderground v.1.15,2013-05-18 16:41:00,
2013-05-18 11:42:00,72.6,61.4,30.05,ESE,103,2.0,2.0,68,0.00,,,0.00,840,Wunderground v.1.15,2013-05-18 16:42:00,
2013-05-18 11:44:00,72.9,61.7,30.05,SE,134,2.0,4.0,68,0.00,,,0.00,837,Wunderground v.1.15,2013-05-18 16:44:00,
2013-05-18 11:46:00,72.9,61.3,30.05,ESE,116,1.0,5.0,67,0.00,,,0.00,849,Wunderground v.1.15,2013-05-18 16:46:00,
2013-05-18 11:48:00,72.7,61.1,30.05,ENE,57,2.0,5.0,67,0.00,,,0.00,846,Wunderground v.1.15,2013-05-18 16:48:00,
2013-05-18 11:49:00,72.7,61.5,30.05,ENE,59,2.0,6.0,68,0.00,,,0.00,846,Wunderground v.1.15,2013-05-18 16:49:00,
2013-05-18 11:52:00,73.1,61.5,30.05,NE,37,3.0,6.0,67,0.00,,,0.00,828,Wunderground v.1.15,2013-05-18 16:52:00,
2013-05-18 11:54:00,73.2,61.6,30.05,NE,49,4.0,6.0,67,0.00,,,0.00,831,Wunderground v.1.15,2013-05-18 16:54:00,
2013-05-18 11:55:00,73.1,61.5,30.05,ENE,67,4.0,6.0,67,0.00,,,0.00,837,Wunderground v.1.15,2013-05-18 16:55:00,
2013-05-18 11:57:00,73.2,61.6,30.05,SE,132,4.0,8.0,67,0.00,,,0.00,838,Wunderground v.1.15,2013-05-18 16:57:00,
2013-05-18 11:59:00,73.1,61.5,30.04,SE,138,4.0,8.0,67,0.00,,,0.00,837,Wunderground v.1.15,2013-05-18 16:59:00,
2013-05-18 12:00:00,73.0,61.4,30.05,SE,138,4.0,4.0,67,0.00,,,0.00,851,Wunderground v.1.15,2013-05-18 17:00:00,
2013-05-18 12:02:00,73.1,61.5,30.05,SE,138,3.0,7.0,67,0.00,,,0.00,854,Wunderground v.1.15,2013-05-18 17:02:00,
2013-05-18 12:05:00,73.2,61.6,30.04,ESE,118,4.0,7.0,67,0.00,,,0.00,853,Wunderground v.1.15,2013-05-18 17:05:00,
2013-05-18 12:06:00,73.2,61.6,30.04,NE,52,4.0,7.0,67,0.00,,,0.00,868,Wunderground v.1.15,2013-05-18 17:06:00,
2013-05-18 12:09:00,73.5,61.4,30.04,East,81,3.0,7.0,66,0.00,,,0.00,861,Wunderground v.1.15,2013-05-18 17:09:00,
2013-05-18 12:10:00,73.7,62.1,30.04,East,92,2.0,2.0,67,0.00,,,0.00,868,Wunderground v.1.15,2013-05-18 17:10:00,
2013-05-18 12:11:00,74.0,62.3,30.04,SE,135,3.0,3.0,67,0.00,,,0.00,867,Wunderground v.1.15,2013-05-18 17:11:00,
2013-05-18 12:14:00,74.7,62.6,30.04,East,92,2.0,3.0,66,0.00,,,0.00,856,Wunderground v.1.15,2013-05-18 17:14:00,
2013-05-18 12:16:00,75.0,63.3,30.04,East,96,2.0,6.0,67,0.00,,,0.00,842,Wunderground v.1.15,2013-05-18 17:16:00,
2013-05-18 12:17:00,75.0,62.0,30.04,SSE,154,2.0,6.0,64,0.00,,,0.00,840,Wunderground v.1.15,2013-05-18 17:17:00,
2013-05-18 12:19:00,74.9,62.3,30.04,SW,231,2.0,6.0,65,0.00,,,0.00,846,Wunderground v.1.15,2013-05-18 17:19:00,
2013-05-18 12:21:00,75.0,62.4,30.04,SW,227,2.0,2.0,65,0.00,,,0.00,849,Wunderground v.1.15,2013-05-18 17:21:00,
2013-05-18 12:23:00,75.7,63.1,30.04,SW,227,2.0,3.0,65,0.00,,,0.00,853,Wunderground v.1.15,2013-05-18 17:23:00,
2013-05-18 12:25:00,75.8,62.8,30.04,SW,227,2.0,3.0,64,0.00,,,0.00,849,Wunderground v.1.15,2013-05-18 17:25:00,
2013-05-18 12:26:00,75.9,62.8,30.04,SW,227,2.0,3.0,64,0.00,,,0.00,854,Wunderground v.1.15,2013-05-18 17:26:00,
2013-05-18 12:28:00,76.3,64.5,30.04,SW,227,1.0,3.0,67,0.00,,,0.00,872,Wunderground v.1.15,2013-05-18 17:28:00,
2013-05-18 12:30:00,76.6,63.1,30.04,NE,41,1.0,1.0,63,0.00,,,0.00,860,Wunderground v.1.15,2013-05-18 17:30:00,
2013-05-18 12:32:00,76.9,63.3,30.03,East,88,1.0,4.0,63,0.00,,,0.00,872,Wunderground v.1.15,2013-05-18 17:32:00,
2013-05-18 12:34:00,76.8,63.2,30.03,ENE,64,2.0,4.0,63,0.00,,,0.00,858,Wunderground v.1.15,2013-05-18 17:34:00,
2013-05-18 12:36:00,76.7,62.7,30.03,SE,138,2.0,6.0,62,0.00,,,0.00,863,Wunderground v.1.15,2013-05-18 17:36:00,
2013-05-18 12:39:00,76.3,62.8,30.03,SE,138,2.0,6.0,63,0.00,,,0.00,863,Wunderground v.1.15,2013-05-18 17:39:00,
2013-05-18 12:41:00,76.1,62.6,30.03,SSE,167,3.0,6.0,63,0.00,,,0.00,853,Wunderground v.1.15,2013-05-18 17:41:00,
2013-05-18 12:43:00,76.1,63.0,30.03,SSW,202,3.0,6.0,64,0.00,,,0.00,853,Wunderground v.1.15,2013-05-18 17:43:00,
2013-05-18 12:45:00,76.2,63.1,30.03,SSW,206,2.0,6.0,64,0.00,,,0.00,853,Wunderground v.1.15,2013-05-18 17:45:00,
2013-05-18 12:47:00,76.4,63.8,30.03,SSW,195,2.0,6.0,65,0.00,,,0.00,422,Wunderground v.1.15,2013-05-18 17:47:00,
2013-05-18 12:49:00,76.4,63.3,30.03,SE,142,2.0,6.0,64,0.00,,,0.00,422,Wunderground v.1.15,2013-05-18 17:49:00,
2013-05-18 12:50:00,76.2,63.1,30.03,SE,145,2.0,2.0,64,0.00,,,0.00,877,Wunderground v.1.15,2013-05-18 17:50:00,
2013-05-18 12:51:00,76.1,63.0,30.03,North,5,2.0,2.0,64,0.00,,,0.00,877,Wunderground v.1.15,2013-05-18 17:51:00,
2013-05-18 12:54:00,76.2,62.7,30.03,NE,37,1.0,2.0,63,0.00,,,0.00,480,Wunderground v.1.15,2013-05-18 17:54:00,
2013-05-18 12:55:00,76.5,63.4,30.02,NE,37,1.0,2.0,64,0.00,,,0.00,480,Wunderground v.1.15,2013-05-18 17:55:00,
2013-05-18 12:56:00,76.6,63.5,30.03,East,91,1.0,4.0,64,0.00,,,0.00,480,Wunderground v.1.15,2013-05-18 17:56:00,
2013-05-18 12:57:00,76.7,63.6,30.03,SSE,166,1.0,4.0,64,0.00,,,0.00,974,Wunderground v.1.15,2013-05-18 17:57:00,
2013-05-18 12:58:00,76.9,63.3,30.03,South,176,2.0,4.0,63,0.00,,,0.00,970,Wunderground v.1.15,2013-05-18 17:58:00,
2013-05-18 13:02:00,77.6,63.5,30.02,SW,218,1.0,2.0,62,0.00,,,0.00,963,Wunderground v.1.15,2013-05-18 18:02:00,
2013-05-18 13:04:00,77.9,63.4,30.02,SW,218,1.0,2.0,61,0.00,,,0.00,990,Wunderground v.1.15,2013-05-18 18:04:00,
2013-05-18 13:05:00,78.6,64.5,30.02,East,85,1.0,2.0,62,0.00,,,0.00,990,Wunderground v.1.15,2013-05-18 18:05:00,
2013-05-18 13:06:00,78.7,63.6,30.02,ENE,71,2.0,6.0,60,0.00,,,0.00,1028,Wunderground v.1.15,2013-05-18 18:06:00,
2013-05-18 13:07:00,78.8,63.7,30.02,ESE,114,1.0,6.0,60,0.00,,,0.00,1099,Wunderground v.1.15,2013-05-18 18:07:00,
2013-05-18 13:09:00,78.9,63.8,30.02,ENE,57,1.0,6.0,60,0.00,,,0.00,1051,Wunderground v.1.15,2013-05-18 18:09:00,
2013-05-18 13:11:00,78.7,63.6,30.02,SE,140,3.0,5.0,60,0.00,,,0.00,1034,Wunderground v.1.15,2013-05-18 18:11:00,
2013-05-18 13:12:00,78.5,63.5,30.01,SE,139,3.0,5.0,60,0.00,,,0.00,1034,Wunderground v.1.15,2013-05-18 18:12:00,
2013-05-18 13:14:00,78.3,64.2,30.01,South,174,3.0,5.0,62,0.00,,,0.00,436,Wunderground v.1.15,2013-05-18 18:14:00,
2013-05-18 13:15:00,78.2,63.6,30.01,SSW,198,3.0,5.0,61,0.00,,,0.00,431,Wunderground v.1.15,2013-05-18 18:15:00,
2013-05-18 13:17:00,78.1,64.0,30.01,South,182,3.0,5.0,62,0.00,,,0.00,506,Wunderground v.1.15,2013-05-18 18:17:00,
2013-05-18 13:21:00,77.9,64.3,30.01,East,81,2.0,8.0,63,0.00,,,0.00,1032,Wunderground v.1.15,2013-05-18 18:21:00,
2013-05-18 13:22:00,78.0,63.9,30.01,East,84,3.0,8.0,62,0.00,,,0.00,1028,Wunderground v.1.15,2013-05-18 18:22:00,
2013-05-18 13:25:00,78.1,64.5,30.01,ESE,110,3.0,8.0,63,0.00,,,0.00,963,Wunderground v.1.15,2013-05-18 18:25:00,
2013-05-18 13:26:00,78.2,64.6,30.01,ESE,109,3.0,8.0,63,0.00,,,0.00,963,Wunderground v.1.15,2013-05-18 18:26:00,
2013-05-18 13:30:00,79.7,65.1,30.01,South,187,2.0,2.0,61,0.00,,,0.00,378,Wunderground v.1.15,2013-05-18 18:30:00,
2013-05-18 13:31:00,79.9,65.2,30.01,ESE,107,2.0,2.0,61,0.00,,,0.00,376,Wunderground v.1.15,2013-05-18 18:31:00,
2013-05-18 13:32:00,79.9,64.8,30.01,South,182,1.0,2.0,60,0.00,,,0.00,385,Wunderground v.1.15,2013-05-18 18:32:00,
2013-05-18 13:37:00,78.7,64.6,30.00,SSE,153,1.0,7.0,62,0.00,,,0.00,380,Wunderground v.1.15,2013-05-18 18:37:00,
2013-05-18 13:38:00,78.6,64.0,30.00,SSE,150,2.0,7.0,61,0.00,,,0.00,348,Wunderground v.1.15,2013-05-18 18:38:00,
2013-05-18 13:39:00,78.6,63.6,30.00,SSE,148,2.0,7.0,60,0.00,,,0.00,308,Wunderground v.1.15,2013-05-18 18:39:00,
2013-05-18 13:40:00,78.5,63.5,30.00,SSE,161,3.0,4.0,60,0.00,,,0.00,308,Wunderground v.1.15,2013-05-18 18:40:00,
2013-05-18 13:41:00,78.5,63.5,30.00,SSE,152,3.0,4.0,60,0.00,,,0.00,336,Wunderground v.1.15,2013-05-18 18:41:00,
2013-05-18 13:43:00,78.2,63.6,30.00,SSE,162,3.0,5.0,61,0.00,,,0.00,381,Wunderground v.1.15,2013-05-18 18:43:00,
2013-05-18 13:45:00,78.0,64.4,30.00,ENE,57,4.0,6.0,63,0.00,,,0.00,381,Wunderground v.1.15,2013-05-18 18:45:00,
2013-05-18 13:49:00,78.4,64.8,30.00,SE,130,3.0,6.0,63,0.00,,,0.00,339,Wunderground v.1.15,2013-05-18 18:49:00,
2013-05-18 13:50:00,78.4,63.8,30.00,South,190,3.0,5.0,61,0.00,,,0.00,350,Wunderground v.1.15,2013-05-18 18:50:00,
2013-05-18 13:51:00,78.3,63.7,30.00,SE,128,3.0,5.0,61,0.00,,,0.00,336,Wunderground v.1.15,2013-05-18 18:51:00,
2013-05-18 13:53:00,78.1,64.0,30.00,SSW,207,4.0,6.0,62,0.00,,,0.00,316,Wunderground v.1.15,2013-05-18 18:53:00,
2013-05-18 13:55:00,78.1,64.0,30.00,SE,144,3.0,6.0,62,0.00,,,0.00,346,Wunderground v.1.15,2013-05-18 18:55:00,
2013-05-18 13:56:00,77.9,63.4,30.00,SE,144,3.0,6.0,61,0.00,,,0.00,346,Wunderground v.1.15,2013-05-18 18:56:00,
2013-05-18 13:57:00,77.7,63.6,30.00,SE,143,4.0,6.0,62,0.00,,,0.00,346,Wunderground v.1.15,2013-05-18 18:57:00,
2013-05-18 13:59:00,77.6,63.5,30.00,SSE,159,3.0,6.0,62,0.00,,,0.00,1035,Wunderground v.1.15,2013-05-18 18:59:00,
2013-05-18 14:00:00,77.6,64.0,30.00,SSE,159,3.0,3.0,63,0.00,,,0.00,1039,Wunderground v.1.15,2013-05-18 19:00:00,
2013-05-18 14:04:00,78.2,63.6,30.00,SE,146,2.0,4.0,61,0.00,,,0.00,1021,Wunderground v.1.15,2013-05-18 19:04:00,
2013-05-18 14:05:00,78.0,63.5,30.00,East,94,2.0,4.0,61,0.00,,,0.00,401,Wunderground v.1.15,2013-05-18 19:05:00,
2013-05-18 14:06:00,78.2,64.1,30.00,SE,134,2.0,5.0,62,0.00,,,0.00,431,Wunderground v.1.15,2013-05-18 19:06:00,
2013-05-18 14:07:00,78.2,63.6,30.00,SE,146,2.0,5.0,61,0.00,,,0.00,359,Wunderground v.1.15,2013-05-18 19:07:00,
2013-05-18 14:09:00,78.3,63.7,30.00,ESE,114,3.0,5.0,61,0.00,,,0.00,357,Wunderground v.1.15,2013-05-18 19:09:00,
2013-05-18 14:12:00,78.7,64.1,30.00,SSW,202,3.0,4.0,61,0.00,,,0.00,464,Wunderground v.1.15,2013-05-18 19:12:00,
2013-05-18 14:13:00,78.6,64.0,30.00,South,172,3.0,5.0,61,0.00,,,0.00,464,Wunderground v.1.15,2013-05-18 19:13:00,
2013-05-18 14:14:00,78.6,63.6,30.00,SSE,167,3.0,5.0,60,0.00,,,0.00,464,Wunderground v.1.15,2013-05-18 19:14:00,
2013-05-18 14:15:00,78.5,63.9,30.00,SSE,167,3.0,5.0,61,0.00,,,0.00,464,Wunderground v.1.15,2013-05-18 19:15:00,
2013-05-18 14:18:00,78.7,65.5,29.99,ESE,123,2.0,6.0,64,0.00,,,0.00,1028,Wunderground v.1.15,2013-05-18 19:18:00,
2013-05-18 14:20:00,78.7,64.1,29.99,East,94,3.0,6.0,61,0.00,,,0.00,983,Wunderground v.1.15,2013-05-18 19:20:00,
2013-05-18 14:21:00,78.7,63.6,29.99,East,94,3.0,9.0,60,0.00,,,0.00,981,Wunderground v.1.15,2013-05-18 19:21:00,
2013-05-18 14:22:00,78.7,63.6,29.99,East,83,4.0,9.0,60,0.00,,,0.00,981,Wunderground v.1.15,2013-05-18 19:22:00,
2013-05-18 14:25:00,78.6,63.6,29.99,NE,42,4.0,9.0,60,0.00,,,0.00,327,Wunderground v.1.15,2013-05-18 19:25:00,
2013-05-18 14:26:00,78.6,63.6,29.99,NNE,17,4.0,9.0,60,0.00,,,0.00,715,Wunderground v.1.15,2013-05-18 19:26:00,
2013-05-18 14:27:00,78.6,63.6,29.99,ENE,67,5.0,9.0,60,0.00,,,0.00,715,Wunderground v.1.15,2013-05-18 19:27:00,
2013-05-18 14:30:00,78.6,63.6,29.99,SSE,159,5.0,8.0,60,0.00,,,0.00,371,Wunderground v.1.15,2013-05-18 19:30:00,
2013-05-18 14:33:00,78.3,63.3,29.99,SE,132,5.0,8.0,60,0.00,,,0.00,1013,Wunderground v.1.15,2013-05-18 19:33:00,
2013-05-18 14:34:00,78.2,63.6,29.99,SE,132,5.0,8.0,61,0.00,,,0.00,1000,Wunderground v.1.15,2013-05-18 19:34:00,
2013-05-18 14:35:00,78.2,63.2,29.99,SE,143,5.0,8.0,60,0.00,,,0.00,969,Wunderground v.1.15,2013-05-18 19:35:00,
2013-05-18 14:36:00,78.1,63.6,29.99,South,191,5.0,8.0,61,0.00,,,0.00,953,Wunderground v.1.15,2013-05-18 19:36:00,
2013-05-18 14:37:00,78.4,63.8,29.99,ENE,69,5.0,8.0,61,0.00,,,0.00,953,Wunderground v.1.15,2013-05-18 19:37:00,
2013-05-18 14:40:00,78.7,63.6,29.98,East,99,5.0,5.0,60,0.00,,,0.00,907,Wunderground v.1.15,2013-05-18 19:40:00,
2013-05-18 14:41:00,78.8,64.2,29.98,East,94,5.0,5.0,61,0.00,,,0.00,904,Wunderground v.1.15,2013-05-18 19:41:00,
2013-05-18 14:42:00,78.8,64.2,29.98,South,169,5.0,5.0,61,0.00,,,0.00,884,Wunderground v.1.15,2013-05-18 19:42:00,
2013-05-18 14:44:00,79.1,64.0,29.98,East,91,4.0,7.0,60,0.00,,,0.00,362,Wunderground v.1.15,2013-05-18 19:44:00,
2013-05-18 14:47:00,79.3,64.2,29.98,East,99,4.0,7.0,60,0.00,,,0.00,884,Wunderground v.1.15,2013-05-18 19:47:00,
2013-05-18 14:49:00,79.1,63.5,29.98,SE,135,5.0,7.0,59,0.00,,,0.00,911,Wunderground v.1.15,2013-05-18 19:49:00,
2013-05-18 14:51:00,79.2,63.6,29.98,SSW,213,4.0,7.0,59,0.00,,,0.00,896,Wunderground v.1.15,2013-05-18 19:51:00,
2013-05-18 14:52:00,79.4,64.3,29.98,SSW,205,4.0,7.0,60,0.00,,,0.00,851,Wunderground v.1.15,2013-05-18 19:52:00,
2013-05-18 14:53:00,79.7,64.1,29.97,South,187,4.0,7.0,59,0.00,,,0.00,851,Wunderground v.1.15,2013-05-18 19:53:00,
2013-05-18 14:54:00,79.8,64.2,29.97,SSW,207,4.0,7.0,59,0.00,,,0.00,380,Wunderground v.1.15,2013-05-18 19:54:00,
2013-05-18 14:56:00,79.9,64.8,29.98,SSE,161,3.0,7.0,60,0.00,,,0.00,380,Wunderground v.1.15,2013-05-18 19:56:00,
2013-05-18 14:59:00,80.0,64.9,29.97,East,100,3.0,7.0,60,0.00,,,0.00,325,Wunderground v.1.15,2013-05-18 19:59:00,
2013-05-18 15:01:00,79.8,63.7,29.97,East,100,3.0,7.0,58,0.00,,,0.00,353,Wunderground v.1.15,2013-05-18 20:01:00,
2013-05-18 15:04:00,79.4,63.3,29.97,ENE,77,4.0,7.0,58,0.00,,,0.00,306,Wunderground v.1.15,2013-05-18 20:04:00,
2013-05-18 15:05:00,79.3,63.7,29.97,NE,38,4.0,7.0,59,0.00,,,0.00,313,Wunderground v.1.15,2013-05-18 20:05:00,
2013-05-18 15:07:00,79.1,63.5,29.97,NE,45,5.0,7.0,59,0.00,,,0.00,362,Wunderground v.1.15,2013-05-18 20:07:00,
2013-05-18 15:09:00,79.2,64.1,29.97,ENE,57,5.0,7.0,60,0.00,,,0.00,369,Wunderground v.1.15,2013-05-18 20:09:00,
2013-05-18 15:10:00,79.1,63.5,29.97,NE,52,4.0,4.0,59,0.00,,,0.00,860,Wunderground v.1.15,2013-05-18 20:10:00,
2013-05-18 15:13:00,79.5,63.9,29.97,ENE,76,4.0,6.0,59,0.00,,,0.00,281,Wunderground v.1.15,2013-05-18 20:13:00,
2013-05-18 15:15:00,79.4,63.8,29.97,ESE,112,4.0,7.0,59,0.00,,,0.00,250,Wunderground v.1.15,2013-05-18 20:15:00,
2013-05-18 15:16:00,79.3,63.7,29.97,ESE,115,4.0,7.0,59,0.00,,,0.00,239,Wunderground v.1.15,2013-05-18 20:16:00,
2013-05-18 15:17:00,79.2,63.6,29.97,ESE,107,4.0,7.0,59,0.00,,,0.00,232,Wunderground v.1.15,2013-05-18 20:17:00,
2013-05-18 15:19:00,79.1,63.5,29.97,East,101,4.0,7.0,59,0.00,,,0.00,230,Wunderground v.1.15,2013-05-18 20:19:00,
2013-05-18 15:20:00,79.1,63.5,29.97,SSE,159,4.0,10.0,59,0.00,,,0.00,257,Wunderground v.1.15,2013-05-18 20:20:00,
2013-05-18 15:21:00,78.9,63.4,29.97,ESE,115,5.0,10.0,59,0.00,,,0.00,281,Wunderground v.1.15,2013-05-18 20:21:00,
2013-05-18 15:22:00,78.9,63.4,29.96,ESE,113,5.0,10.0,59,0.00,,,0.00,297,Wunderground v.1.15,2013-05-18 20:22:00,
2013-05-18 15:26:00,78.6,63.1,29.96,ENE,57,4.0,10.0,59,0.00,,,0.00,302,Wunderground v.1.15,2013-05-18 20:26:00,
2013-05-18 15:27:00,78.6,63.1,29.96,ENE,67,4.0,10.0,59,0.00,,,0.00,322,Wunderground v.1.15,2013-05-18 20:27:00,
2013-05-18 15:30:00,78.8,63.7,29.96,SSE,149,3.0,4.0,60,0.00,,,0.00,737,Wunderground v.1.15,2013-05-18 20:30:00,
2013-05-18 15:32:00,78.9,63.8,29.96,SSE,147,2.0,4.0,60,0.00,,,0.00,269,Wunderground v.1.15,2013-05-18 20:32:00,
2013-05-18 15:33:00,79.0,63.9,29.96,East,80,2.0,7.0,60,0.00,,,0.00,232,Wunderground v.1.15,2013-05-18 20:33:00,
2013-05-18 15:34:00,78.9,63.8,29.96,SE,141,3.0,7.0,60,0.00,,,0.00,211,Wunderground v.1.15,2013-05-18 20:34:00,
2013-05-18 15:35:00,78.9,63.8,29.96,ESE,103,3.0,7.0,60,0.00,,,0.00,200,Wunderground v.1.15,2013-05-18 20:35:00,
2013-05-18 15:37:00,78.8,63.7,29.96,SE,144,3.0,9.0,60,0.00,,,0.00,262,Wunderground v.1.15,2013-05-18 20:37:00,
2013-05-18 15:41:00,78.8,63.3,29.95,ESE,114,5.0,5.0,59,0.00,,,0.00,322,Wunderground v.1.15,2013-05-18 20:41:00,
2013-05-18 15:42:00,78.7,63.6,29.96,ESE,120,5.0,5.0,60,0.00,,,0.00,264,Wunderground v.1.15,2013-05-18 20:42:00,
2013-05-18 15:43:00,78.7,63.6,29.95,ESE,102,5.0,5.0,60,0.00,,,0.00,250,Wunderground v.1.15,2013-05-18 20:43:00,
2013-05-18 15:44:00,78.7,63.6,29.95,ESE,107,5.0,5.0,60,0.00,,,0.00,241,Wunderground v.1.15,2013-05-18 20:44:00,
2013-05-18 15:45:00,78.7,63.6,29.95,ESE,111,5.0,5.0,60,0.00,,,0.00,304,Wunderground v.1.15,2013-05-18 20:45:00,
2013-05-18 15:50:00,78.9,63.8,29.95,SE,133,3.0,5.0,60,0.00,,,0.00,272,Wunderground v.1.15,2013-05-18 20:50:00,
2013-05-18 15:52:00,78.8,63.7,29.95,SE,132,3.0,5.0,60,0.00,,,0.00,292,Wunderground v.1.15,2013-05-18 20:52:00,
2013-05-18 15:54:00,78.7,63.2,29.95,South,182,3.0,8.0,59,0.00,,,0.00,294,Wunderground v.1.15,2013-05-18 20:54:00,
2013-05-18 15:59:00,78.5,63.5,29.95,SSE,155,5.0,8.0,60,0.00,,,0.00,401,Wunderground v.1.15,2013-05-18 20:59:00,
2013-05-18 16:00:00,78.6,63.6,29.95,SE,130,5.0,5.0,60,0.00,,,0.00,684,Wunderground v.1.15,2013-05-18 21:00:00,
2013-05-18 16:01:00,78.6,63.6,29.95,SE,134,5.0,5.0,60,0.00,,,0.00,759,Wunderground v.1.15,2013-05-18 21:01:00,
2013-05-18 16:02:00,78.7,63.6,29.95,ESE,123,5.0,5.0,60,0.00,,,0.00,715,Wunderground v.1.15,2013-05-18 21:02:00,
2013-05-18 16:04:00,78.8,64.2,29.95,SE,146,5.0,13.0,61,0.00,,,0.00,691,Wunderground v.1.15,2013-05-18 21:04:00,
2013-05-18 16:05:00,79.0,63.4,29.95,ESE,123,5.0,13.0,59,0.00,,,0.00,664,Wunderground v.1.15,2013-05-18 21:05:00,
2013-05-18 16:09:00,79.2,63.6,29.95,SE,124,5.0,13.0,59,0.00,,,0.00,708,Wunderground v.1.15,2013-05-18 21:09:00,
2013-05-18 16:11:00,79.4,63.3,29.95,SSE,166,5.0,5.0,58,0.00,,,0.00,726,Wunderground v.1.15,2013-05-18 21:11:00,
2013-05-18 16:13:00,79.6,63.5,29.95,South,182,5.0,5.0,58,0.00,,,0.00,691,Wunderground v.1.15,2013-05-18 21:13:00,
2013-05-18 16:14:00,79.6,63.5,29.94,SSE,167,4.0,5.0,58,0.00,,,0.00,645,Wunderground v.1.15,2013-05-18 21:14:00,
2013-05-18 16:16:00,79.9,63.8,29.94,East,91,3.0,5.0,58,0.00,,,0.00,552,Wunderground v.1.15,2013-05-18 21:16:00,
2013-05-18 16:17:00,80.0,63.9,29.94,SE,133,3.0,5.0,58,0.00,,,0.00,552,Wunderground v.1.15,2013-05-18 21:17:00,
2013-05-18 16:18:00,80.1,64.0,29.94,ESE,112,3.0,5.0,58,0.00,,,0.00,552,Wunderground v.1.15,2013-05-18 21:18:00,
2013-05-18 16:20:00,80.2,64.1,29.94,SSE,159,3.0,3.0,58,0.00,,,0.00,257,Wunderground v.1.15,2013-05-18 21:20:00,
2013-05-18 16:21:00,80.3,64.2,29.94,SSE,158,3.0,3.0,58,0.00,,,0.00,251,Wunderground v.1.15,2013-05-18 21:21:00,
2013-05-18 16:24:00,80.5,64.4,29.94,SE,136,2.0,5.0,58,0.00,,,0.00,341,Wunderground v.1.15,2013-05-18 21:24:00,
2013-05-18 16:26:00,80.5,63.9,29.94,ESE,123,4.0,8.0,57,0.00,,,0.00,301,Wunderground v.1.15,2013-05-18 21:26:00,
2013-05-18 16:29:00,80.2,63.6,29.94,East,83,4.0,9.0,57,0.00,,,0.00,471,Wunderground v.1.15,2013-05-18 21:29:00,
2013-05-18 16:31:00,80.3,64.2,29.94,ESE,102,4.0,4.0,58,0.00,,,0.00,619,Wunderground v.1.15,2013-05-18 21:31:00,
2013-05-18 16:33:00,80.6,64.5,29.94,SE,140,4.0,4.0,58,0.00,,,0.00,483,Wunderground v.1.15,2013-05-18 21:33:00,
2013-05-18 16:36:00,80.9,64.2,29.94,SSE,155,2.0,6.0,57,0.00,,,0.00,239,Wunderground v.1.15,2013-05-18 21:36:00,
2013-05-18 16:38:00,80.8,63.6,29.94,South,177,2.0,6.0,56,0.00,,,0.00,322,Wunderground v.1.15,2013-05-18 21:38:00,
2013-05-18 16:39:00,80.7,63.5,29.95,SE,146,2.0,8.0,56,0.00,,,0.00,264,Wunderground v.1.15,2013-05-18 21:39:00,
2013-05-18 16:43:00,80.0,63.4,29.94,SE,142,4.0,9.0,57,0.00,,,0.00,571,Wunderground v.1.15,2013-05-18 21:43:00,
2013-05-18 16:44:00,79.9,63.3,29.94,SSE,153,4.0,9.0,57,0.00,,,0.00,570,Wunderground v.1.15,2013-05-18 21:44:00,
2013-05-18 16:46:00,79.8,64.2,29.94,SSE,153,5.0,9.0,59,0.00,,,0.00,557,Wunderground v.1.15,2013-05-18 21:46:00,
2013-05-18 16:49:00,79.9,63.8,29.94,SSE,162,6.0,9.0,58,0.00,,,0.00,564,Wunderground v.1.15,2013-05-18 21:49:00,
2013-05-18 16:51:00,80.0,63.4,29.94,SE,146,5.0,8.0,57,0.00,,,0.00,568,Wunderground v.1.15,2013-05-18 21:51:00,
2013-05-18 16:54:00,80.2,64.1,29.94,SSE,155,5.0,8.0,58,0.00,,,0.00,571,Wunderground v.1.15,2013-05-18 21:54:00,
2013-05-18 16:55:00,80.3,63.7,29.94,SE,130,5.0,8.0,57,0.00,,,0.00,557,Wunderground v.1.15,2013-05-18 21:55:00,
2013-05-18 16:56:00,80.3,63.7,29.94,East,95,5.0,8.0,57,0.00,,,0.00,543,Wunderground v.1.15,2013-05-18 21:56:00,
2013-05-18 16:57:00,80.3,63.7,29.94,SE,143,5.0,8.0,57,0.00,,,0.00,547,Wunderground v.1.15,2013-05-18 21:57:00,
2013-05-18 17:00:00,80.2,63.1,29.94,SE,136,5.0,5.0,56,0.00,,,0.00,510,Wunderground v.1.15,2013-05-18 22:00:00,
2013-05-18 17:01:00,80.1,63.5,29.94,SSE,167,5.0,5.0,57,0.00,,,0.00,487,Wunderground v.1.15,2013-05-18 22:01:00,
2013-05-18 17:02:00,80.1,63.5,29.94,SE,128,5.0,5.0,57,0.00,,,0.00,476,Wunderground v.1.15,2013-05-18 22:02:00,
2013-05-18 17:03:00,80.2,64.1,29.94,ESE,109,5.0,6.0,58,0.00,,,0.00,482,Wunderground v.1.15,2013-05-18 22:03:00,
2013-05-18 17:04:00,80.3,64.2,29.94,SE,135,5.0,9.0,58,0.00,,,0.00,469,Wunderground v.1.15,2013-05-18 22:04:00,
2013-05-18 17:06:00,80.4,64.3,29.93,South,171,5.0,9.0,58,0.00,,,0.00,476,Wunderground v.1.15,2013-05-18 22:06:00,
2013-05-18 17:07:00,80.3,63.7,29.93,East,96,5.0,11.0,57,0.00,,,0.00,485,Wunderground v.1.15,2013-05-18 22:07:00,
2013-05-18 17:09:00,80.3,63.7,29.93,ENE,59,5.0,11.0,57,0.00,,,0.00,475,Wunderground v.1.15,2013-05-18 22:09:00,
2013-05-18 17:13:00,80.1,64.0,29.94,ENE,75,6.0,6.0,58,0.00,,,0.00,183,Wunderground v.1.15,2013-05-18 22:13:00,
2013-05-18 17:14:00,80.0,63.4,29.93,ESE,107,6.0,6.0,57,0.00,,,0.00,197,Wunderground v.1.15,2013-05-18 22:14:00,
2013-05-18 17:18:00,79.9,63.8,29.93,NE,51,6.0,7.0,58,0.00,,,0.00,343,Wunderground v.1.15,2013-05-18 22:18:00,
2013-05-18 17:21:00,79.8,63.2,29.94,SE,132,5.0,7.0,57,0.00,,,0.00,160,Wunderground v.1.15,2013-05-18 22:21:00,
2013-05-18 17:23:00,79.7,63.1,29.94,SSE,153,5.0,7.0,57,0.00,,,0.00,135,Wunderground v.1.15,2013-05-18 22:23:00,
2013-05-18 17:24:00,79.6,63.0,29.94,East,79,6.0,8.0,57,0.00,,,0.00,158,Wunderground v.1.15,2013-05-18 22:24:00,
2013-05-18 17:25:00,79.5,62.9,29.94,SE,146,6.0,8.0,57,0.00,,,0.00,230,Wunderground v.1.15,2013-05-18 22:25:00,
2013-05-18 17:27:00,79.4,63.3,29.94,ESE,120,6.0,8.0,58,0.00,,,0.00,174,Wunderground v.1.15,2013-05-18 22:27:00,
2013-05-18 17:31:00,79.4,63.3,29.94,South,169,5.0,7.0,58,0.00,,,0.00,155,Wunderground v.1.15,2013-05-18 22:31:00,
2013-05-18 17:32:00,79.4,63.3,29.94,ESE,115,5.0,7.0,58,0.00,,,0.00,167,Wunderground v.1.15,2013-05-18 22:32:00,
2013-05-18 17:34:00,79.4,63.3,29.94,South,183,5.0,7.0,58,0.00,,,0.00,362,Wunderground v.1.15,2013-05-18 22:34:00,
2013-05-18 17:36:00,79.4,62.8,29.93,ESE,105,4.0,7.0,57,0.00,,,0.00,390,Wunderground v.1.15,2013-05-18 22:36:00,
2013-05-18 17:37:00,79.4,63.3,29.94,South,184,4.0,7.0,58,0.00,,,0.00,397,Wunderground v.1.15,2013-05-18 22:37:00,
2013-05-18 17:38:00,79.5,62.9,29.93,SSE,154,5.0,7.0,57,0.00,,,0.00,397,Wunderground v.1.15,2013-05-18 22:38:00,
2013-05-18 17:40:00,79.6,63.5,29.93,SSE,151,4.0,8.0,58,0.00,,,0.00,396,Wunderground v.1.15,2013-05-18 22:40:00,
2013-05-18 17:42:00,79.7,63.1,29.93,SE,135,5.0,8.0,57,0.00,,,0.00,367,Wunderground v.1.15,2013-05-18 22:42:00,
2013-05-18 17:43:00,79.7,63.1,29.93,SE,126,5.0,8.0,57,0.00,,,0.00,378,Wunderground v.1.15,2013-05-18 22:43:00,
2013-05-18 17:45:00,79.8,62.7,29.93,SE,134,5.0,8.0,56,0.00,,,0.00,355,Wunderground v.1.15,2013-05-18 22:45:00,
2013-05-18 17:47:00,79.8,62.7,29.93,SE,138,6.0,8.0,56,0.00,,,0.00,345,Wunderground v.1.15,2013-05-18 22:47:00,
2013-05-18 17:49:00,79.9,63.3,29.93,ESE,116,5.0,8.0,57,0.00,,,0.00,348,Wunderground v.1.15,2013-05-18 22:49:00,
2013-05-18 17:50:00,79.9,63.3,29.93,SE,141,6.0,6.0,57,0.00,,,0.00,341,Wunderground v.1.15,2013-05-18 22:50:00,
2013-05-18 17:53:00,80.1,63.0,29.93,SE,140,5.0,12.0,56,0.00,,,0.00,350,Wunderground v.1.15,2013-05-18 22:53:00,
2013-05-18 17:55:00,80.1,63.5,29.93,South,178,5.0,12.0,57,0.00,,,0.00,332,Wunderground v.1.15,2013-05-18 22:55:00,
2013-05-18 17:56:00,80.1,63.5,29.93,South,176,5.0,12.0,57,0.00,,,0.00,320,Wunderground v.1.15,2013-05-18 22:56:00,
2013-05-18 17:59:00,80.1,63.0,29.93,SSE,161,5.0,12.0,56,0.00,,,0.00,308,Wunderground v.1.15,2013-05-18 22:59:00,
2013-05-18 18:01:00,80.0,62.9,29.93,SSE,165,5.0,6.0,56,0.00,,,0.00,299,Wunderground v.1.15,2013-05-18 23:01:00,
2013-05-18 18:03:00,79.9,62.8,29.93,SE,130,5.0,6.0,56,0.00,,,0.00,253,Wunderground v.1.15,2013-05-18 23:03:00,
2013-05-18 18:04:00,79.9,62.8,29.93,South,190,4.0,6.0,56,0.00,,,0.00,294,Wunderground v.1.15,2013-05-18 23:04:00,
2013-05-18 18:08:00,79.8,62.7,29.93,SSE,161,4.0,9.0,56,0.00,,,0.00,269,Wunderground v.1.15,2013-05-18 23:08:00,
2013-05-18 18:10:00,79.8,62.7,29.93,SSE,154,5.0,5.0,56,0.00,,,0.00,260,Wunderground v.1.15,2013-05-18 23:10:00,
2013-05-18 18:13:00,79.9,62.8,29.93,SE,139,4.0,6.0,56,0.00,,,0.00,264,Wunderground v.1.15,2013-05-18 23:13:00,
2013-05-18 18:15:00,79.9,62.8,29.93,South,178,4.0,6.0,56,0.00,,,0.00,250,Wunderground v.1.15,2013-05-18 23:15:00,
2013-05-18 18:16:00,79.9,63.3,29.93,SE,130,4.0,6.0,57,0.00,,,0.00,251,Wunderground v.1.15,2013-05-18 23:16:00,
2013-05-18 18:18:00,79.9,63.3,29.93,SSE,161,4.0,6.0,57,0.00,,,0.00,255,Wunderground v.1.15,2013-05-18 23:18:00,
2013-05-18 18:19:00,79.9,63.3,29.93,SSE,151,3.0,6.0,57,0.00,,,0.00,258,Wunderground v.1.15,2013-05-18 23:19:00,
2013-05-18 18:20:00,79.9,62.3,29.93,SE,142,3.0,9.0,55,0.00,,,0.00,257,Wunderground v.1.15,2013-05-18 23:20:00,
2013-05-18 18:25:00,79.9,62.8,29.93,SSE,158,5.0,9.0,56,0.00,,,0.00,246,Wunderground v.1.15,2013-05-18 23:25:00,
2013-05-18 18:26:00,79.8,62.7,29.93,SSE,150,5.0,9.0,56,0.00,,,0.00,237,Wunderground v.1.15,2013-05-18 23:26:00,
2013-05-18 18:27:00,79.8,63.2,29.93,South,180,5.0,9.0,57,0.00,,,0.00,229,Wunderground v.1.15,2013-05-18 23:27:00,
2013-05-18 18:29:00,79.8,62.7,29.93,SSW,196,5.0,9.0,56,0.00,,,0.00,218,Wunderground v.1.15,2013-05-18 23:29:00,
2013-05-18 18:32:00,79.8,62.7,29.93,SSE,157,5.0,8.0,56,0.00,,,0.00,213,Wunderground v.1.15,2013-05-18 23:32:00,
2013-05-18 18:34:00,79.8,62.7,29.93,SE,143,5.0,8.0,56,0.00,,,0.00,204,Wunderground v.1.15,2013-05-18 23:34:00,
2013-05-18 18:39:00,79.7,62.6,29.93,SSW,200,5.0,10.0,56,0.00,,,0.00,188,Wunderground v.1.15,2013-05-18 23:39:00,
2013-05-18 18:40:00,79.7,62.6,29.93,SW,222,5.0,5.0,56,0.00,,,0.00,179,Wunderground v.1.15,2013-05-18 23:40:00,
2013-05-18 18:41:00,79.7,62.6,29.93,SSE,156,5.0,5.0,56,0.00,,,0.00,139,Wunderground v.1.15,2013-05-18 23:41:00,
2013-05-18 18:45:00,79.6,62.5,29.92,South,177,4.0,6.0,56,0.00,,,0.00,86,Wunderground v.1.15,2013-05-18 23:45:00,
2013-05-18 18:47:00,79.6,62.5,29.92,SSW,194,4.0,6.0,56,0.00,,,0.00,90,Wunderground v.1.15,2013-05-18 23:47:00,
2013-05-18 18:49:00,79.5,62.9,29.93,SSW,192,3.0,6.0,57,0.00,,,0.00,146,Wunderground v.1.15,2013-05-18 23:49:00,
2013-05-18 18:52:00,79.4,62.8,29.92,SSE,157,2.0,8.0,57,0.00,,,0.00,95,Wunderground v.1.15,2013-05-18 23:52:00,
2013-05-18 18:53:00,79.3,62.7,29.92,South,175,3.0,8.0,57,0.00,,,0.00,137,Wunderground v.1.15,2013-05-18 23:53:00,
2013-05-18 18:56:00,79.2,62.1,29.92,South,171,2.0,8.0,56,0.00,,,0.00,107,Wunderground v.1.15,2013-05-18 23:56:00,
2013-05-18 18:57:00,79.2,62.7,29.93,ESE,113,3.0,8.0,57,0.00,,,0.00,130,Wunderground v.1.15,2013-05-18 23:57:00,
2013-05-18 18:58:00,79.1,62.6,29.92,SE,131,3.0,8.0,57,0.00,,,0.00,153,Wunderground v.1.15,2013-05-18 23:58:00,
2013-05-18 19:00:00,79.1,62.6,29.92,SE,137,3.0,7.0,57,0.00,,,0.00,132,Wunderground v.1.15,2013-05-19 00:00:00,
2013-05-18 19:01:00,79.1,62.6,29.93,SE,134,3.0,7.0,57,0.00,,,0.00,114,Wunderground v.1.15,2013-05-19 00:01:00,
2013-05-18 19:02:00,79.0,62.5,29.92,South,188,3.0,7.0,57,0.00,,,0.00,132,Wunderground v.1.15,2013-05-19 00:02:00,
2013-05-18 19:05:00,79.0,62.5,29.92,ESE,111,3.0,7.0,57,0.00,,,0.00,120,Wunderground v.1.15,2013-05-19 00:05:00,
2013-05-18 19:07:00,78.9,62.4,29.92,SE,139,2.0,7.0,57,0.00,,,0.00,114,Wunderground v.1.15,2013-05-19 00:07:00,
2013-05-18 19:08:00,78.9,62.4,29.92,ESE,109,2.0,7.0,57,0.00,,,0.00,113,Wunderground v.1.15,2013-05-19 00:08:00,
2013-05-18 19:11:00,78.9,62.4,29.92,SE,142,2.0,8.0,57,0.00,,,0.00,97,Wunderground v.1.15,2013-05-19 00:11:00,
2013-05-18 19:12:00,78.9,62.4,29.92,SE,143,2.0,8.0,57,0.00,,,0.00,81,Wunderground v.1.15,2013-05-19 00:12:00,
2013-05-18 19:14:00,78.9,62.4,29.93,SE,133,2.0,8.0,57,0.00,,,0.00,83,Wunderground v.1.15,2013-05-19 00:14:00,
2013-05-18 19:16:00,78.9,62.4,29.93,SE,134,2.0,8.0,57,0.00,,,0.00,81,Wunderground v.1.15,2013-05-19 00:16:00,
2013-05-18 19:19:00,78.8,62.3,29.93,SE,134,2.0,8.0,57,0.00,,,0.00,98,Wunderground v.1.15,2013-05-19 00:19:00,
2013-05-18 19:22:00,78.7,62.2,29.93,ESE,123,1.0,2.0,57,0.00,,,0.00,93,Wunderground v.1.15,2013-05-19 00:22:00,
2013-05-18 19:24:00,78.7,62.2,29.93,ESE,123,1.0,2.0,57,0.00,,,0.00,88,Wunderground v.1.15,2013-05-19 00:24:00,
2013-05-18 19:27:00,78.7,62.7,29.92,SE,124,1.0,2.0,58,0.00,,,0.00,81,Wunderground v.1.15,2013-05-19 00:27:00,
2013-05-18 19:28:00,78.7,62.7,29.92,SE,124,1.0,2.0,58,0.00,,,0.00,79,Wunderground v.1.15,2013-05-19 00:28:00,
2013-05-18 19:29:00,78.6,62.6,29.92,SE,124,1.0,2.0,58,0.00,,,0.00,76,Wunderground v.1.15,2013-05-19 00:29:00,
2013-05-18 19:30:00,78.6,62.6,29.92,SE,136,1.0,6.0,58,0.00,,,0.00,72,Wunderground v.1.15,2013-05-19 00:30:00,
2013-05-18 19:31:00,78.6,62.6,29.92,SE,133,1.0,6.0,58,0.00,,,0.00,70,Wunderground v.1.15,2013-05-19 00:31:00,
2013-05-18 19:33:00,78.5,62.5,29.92,ESE,121,1.0,6.0,58,0.00,,,0.00,67,Wunderground v.1.15,2013-05-19 00:33:00,
2013-05-18 19:36:00,78.4,62.9,29.92,ESE,106,1.0,6.0,59,0.00,,,0.00,63,Wunderground v.1.15,2013-05-19 00:36:00,
2013-05-18 19:37:00,78.4,62.9,29.92,ESE,117,1.0,6.0,59,0.00,,,0.00,63,Wunderground v.1.15,2013-05-19 00:37:00,
2013-05-18 19:38:00,78.3,62.8,29.92,ESE,117,1.0,6.0,59,0.00,,,0.00,60,Wunderground v.1.15,2013-05-19 00:38:00,
2013-05-18 19:41:00,78.2,63.2,29.92,ESE,117,1.0,1.0,60,0.00,,,0.00,56,Wunderground v.1.15,2013-05-19 00:41:00,
2013-05-18 19:44:00,78.1,62.6,29.92,ESE,117,1.0,4.0,59,0.00,,,0.00,53,Wunderground v.1.15,2013-05-19 00:44:00,
2013-05-18 19:46:00,77.9,62.9,29.93,ENE,76,1.0,4.0,60,0.00,,,0.00,49,Wunderground v.1.15,2013-05-19 00:46:00,
2013-05-18 19:48:00,77.8,62.8,29.93,ENE,73,1.0,4.0,60,0.00,,,0.00,46,Wunderground v.1.15,2013-05-19 00:48:00,
2013-05-18 19:49:00,77.7,63.2,29.93,East,100,1.0,4.0,61,0.00,,,0.00,46,Wunderground v.1.15,2013-05-19 00:49:00,
2013-05-18 19:52:00,77.5,63.0,29.93,ESE,105,1.0,1.0,61,0.00,,,0.00,40,Wunderground v.1.15,2013-05-19 00:52:00,
2013-05-18 19:54:00,77.5,63.0,29.93,East,101,1.0,1.0,61,0.00,,,0.00,39,Wunderground v.1.15,2013-05-19 00:54:00,
2013-05-18 19:55:00,77.4,62.9,29.93,East,101,1.0,1.0,61,0.00,,,0.00,35,Wunderground v.1.15,2013-05-19 00:55:00,
2013-05-18 19:59:00,77.3,63.3,29.93,East,101,1.0,1.0,62,0.00,,,0.00,30,Wunderground v.1.15,2013-05-19 00:59:00,
2013-05-18 20:00:00,77.3,63.3,29.93,East,101,1.0,2.0,62,0.00,,,0.00,28,Wunderground v.1.15,2013-05-19 01:00:00,
2013-05-18 20:01:00,77.2,63.2,29.93,East,101,1.0,2.0,62,0.00,,,0.00,26,Wunderground v.1.15,2013-05-19 01:01:00,
2013-05-18 20:02:00,77.2,63.6,29.93,East,101,1.0,2.0,63,0.00,,,0.00,26,Wunderground v.1.15,2013-05-19 01:02:00,
2013-05-18 20:05:00,77.0,63.4,29.93,ENE,67,0.0,4.0,63,0.00,,,0.00,23,Wunderground v.1.15,2013-05-19 01:05:00,
2013-05-18 20:07:00,76.9,63.3,29.93,ENE,68,1.0,4.0,63,0.00,,,0.00,19,Wunderground v.1.15,2013-05-19 01:07:00,
2013-05-18 20:10:00,76.6,63.5,29.93,ENE,69,1.0,1.0,64,0.00,,,0.00,18,Wunderground v.1.15,2013-05-19 01:10:00,
2013-05-18 20:13:00,76.5,63.4,29.93,ENE,69,1.0,1.0,64,0.00,,,0.00,12,Wunderground v.1.15,2013-05-19 01:13:00,
2013-05-18 20:14:00,76.5,63.4,29.93,ENE,69,1.0,1.0,64,0.00,,,0.00,11,Wunderground v.1.15,2013-05-19 01:14:00,
2013-05-18 20:15:00,76.4,63.3,29.93,ENE,69,1.0,1.0,64,0.00,,,0.00,11,Wunderground v.1.15,2013-05-19 01:15:00,
2013-05-18 20:16:00,76.4,63.3,29.93,ENE,69,0.0,1.0,64,0.00,,,0.00,11,Wunderground v.1.15,2013-05-19 01:16:00,
2013-05-18 20:18:00,76.2,63.1,29.93,ENE,69,0.0,1.0,64,0.00,,,0.00,7,Wunderground v.1.15,2013-05-19 01:18:00,
2013-05-18 20:19:00,76.2,63.1,29.93,ENE,69,0.0,1.0,64,0.00,,,0.00,7,Wunderground v.1.15,2013-05-19 01:19:00,
2013-05-18 20:22:00,76.1,63.5,29.93,ENE,69,0.0,0.0,65,0.00,,,0.00,5,Wunderground v.1.15,2013-05-19 01:22:00,
2013-05-18 20:24:00,76.0,63.4,29.93,ENE,69,0.0,0.0,65,0.00,,,0.00,5,Wunderground v.1.15,2013-05-19 01:24:00,
2013-05-18 20:26:00,75.8,63.2,29.93,SSE,150,0.0,0.0,65,0.00,,,0.00,0,Wunderground v.1.15,2013-05-19 01:26:00,
2013-05-18 20:29:00,75.6,63.0,29.93,SSE,150,0.0,0.0,65,0.00,,,0.00,0,Wunderground v.1.15,2013-05-19 01:29:00,
2013-05-18 20:31:00,75.4,62.8,29.93,East,101,0.0,4.0,65,0.00,,,0.00,0,Wunderground v.1.15,2013-05-19 01:31:00,
2013-05-18 20:32:00,75.4,63.2,29.93,ESE,106,0.0,4.0,66,0.00,,,0.00,0,Wunderground v.1.15,2013-05-19 01:32:00,
2013-05-18 20:33:00,75.3,63.2,29.93,ESE,107,0.0,4.0,66,0.00,,,0.00,0,Wunderground v.1.15,2013-05-19 01:33:00,
2013-05-18 20:34:00,75.3,63.2,29.93,ESE,107,0.0,4.0,66,0.00,,,0.00,0,Wunderground v.1.15,2013-05-19 01:34:00,
2013-05-18 20:36:00,75.1,63.0,29.94,ESE,107,0.0,4.0,66,0.00,,,0.00,0,Wunderground v.1.15,2013-05-19 01:36:00,
2013-05-18 20:38:00,75.0,62.9,29.94,SE,132,0.0,4.0,66,0.00,,,0.00,0,Wunderground v.1.15,2013-05-19 01:38:00,
2013-05-18 20:39:00,74.9,62.8,29.94,SE,132,0.0,4.0,66,0.00,,,0.00,0,Wunderground v.1.15,2013-05-19 01:39:00,
2013-05-18 20:42:00,74.8,63.1,29.94,SE,132,0.0,0.0,67,0.00,,,0.00,0,Wunderground v.1.15,2013-05-19 01:42:00,
2013-05-18 20:43:00,74.8,63.1,29.94,SSE,165,0.0,0.0,67,0.00,,,0.00,0,Wunderground v.1.15,2013-05-19 01:43:00,
2013-05-18 20:45:00,74.7,63.0,29.94,SSE,165,0.0,1.0,67,0.00,,,0.00,0,Wunderground v.1.15,2013-05-19 01:45:00,
2013-05-18 20:47:00,74.6,62.9,29.94,SSE,165,0.0,1.0,67,0.00,,,0.00,0,Wunderground v.1.15,2013-05-19 01:47:00,
2013-05-18 20:49:00,74.4,63.1,29.94,SSE,165,0.0,1.0,68,0.00,,,0.00,0,Wunderground v.1.15,2013-05-19 01:49:00,
2013-05-18 20:51:00,74.3,63.1,29.94,SSE,165,0.0,0.0,68,0.00,,,0.00,0,Wunderground v.1.15,2013-05-19 01:51:00,
2013-05-18 20:54:00,74.2,63.0,29.94,SSE,165,0.0,1.0,68,0.00,,,0.00,0,Wunderground v.1.15,2013-05-19 01:54:00,
2013-05-18 20:56:00,74.0,63.2,29.94,SSE,165,0.0,1.0,69,0.00,,,0.00,0,Wunderground v.1.15,2013-05-19 01:56:00,
2013-05-18 20:57:00,74.0,63.2,29.94,SSE,165,0.0,1.0,69,0.00,,,0.00,0,Wunderground v.1.15,2013-05-19 01:57:00,
2013-05-18 21:00:00,73.9,63.1,29.94,SSE,165,0.0,0.0,69,0.00,,,0.00,0,Wunderground v.1.15,2013-05-19 02:00:00,
2013-05-18 21:02:00,73.7,63.3,29.94,SSE,165,0.0,0.0,70,0.00,,,0.00,0,Wunderground v.1.15,2013-05-19 02:02:00,
2013-05-18 21:03:00,73.6,63.2,29.94,SSE,165,0.0,0.0,70,0.00,,,0.00,0,Wunderground v.1.15,2013-05-19 02:03:00,
2013-05-18 21:04:00,73.5,63.1,29.94,SSE,165,0.0,0.0,70,0.00,,,0.00,0,Wunderground v.1.15,2013-05-19 02:04:00,
2013-05-18 21:07:00,73.3,62.9,29.94,SSE,165,0.0,0.0,70,0.00,,,0.00,0,Wunderground v.1.15,2013-05-19 02:07:00,
2013-05-18 21:09:00,73.2,62.8,29.94,SSE,165,0.0,0.0,70,0.00,,,0.00,0,Wunderground v.1.15,2013-05-19 02:09:00,
2013-05-18 21:10:00,73.1,62.7,29.94,SSE,165,0.0,0.0,70,0.00,,,0.00,0,Wunderground v.1.15,2013-05-19 02:10:00,
2013-05-18 21:12:00,73.0,62.6,29.94,SSE,165,0.0,0.0,70,0.00,,,0.00,0,Wunderground v.1.15,2013-05-19 02:12:00,
2013-05-18 21:14:00,72.9,62.5,29.94,SSE,165,0.0,0.0,70,0.00,,,0.00,0,Wunderground v.1.15,2013-05-19 02:14:00,
2013-05-18 21:17:00,72.7,62.8,29.94,SSE,165,0.0,0.0,71,0.00,,,0.00,0,Wunderground v.1.15,2013-05-19 02:17:00,
2013-05-18 21:19:00,72.6,63.1,29.93,SSE,165,0.0,0.0,72,0.00,,,0.00,0,Wunderground v.1.15,2013-05-19 02:19:00,
2013-05-18 21:21:00,72.4,62.9,29.94,SSE,165,0.0,0.0,72,0.00,,,0.00,0,Wunderground v.1.15,2013-05-19 02:21:00,
2013-05-18 21:24:00,72.3,62.8,29.94,SSE,165,0.0,0.0,72,0.00,,,0.00,0,Wunderground v.1.15,2013-05-19 02:24:00,
2013-05-18 21:25:00,72.2,62.7,29.94,SSE,165,0.0,0.0,72,0.00,,,0.00,0,Wunderground v.1.15,2013-05-19 02:25:00,
2013-05-18 21:26:00,72.1,62.6,29.94,SSE,165,0.0,0.0,72,0.00,,,0.00,0,Wunderground v.1.15,2013-05-19 02:26:00,
2013-05-18 21:29:00,71.9,62.8,29.93,SSE,165,0.0,0.0,73,0.00,,,0.00,0,Wunderground v.1.15,2013-05-19 02:29:00,
2013-05-18 21:30:00,71.8,62.7,29.93,SSE,165,0.0,0.0,73,0.00,,,0.00,0,Wunderground v.1.15,2013-05-19 02:30:00,
2013-05-18 21:31:00,71.8,62.7,29.93,SSE,165,0.0,0.0,73,0.00,,,0.00,0,Wunderground v.1.15,2013-05-19 02:31:00,
2013-05-18 21:32:00,71.7,62.6,29.93,SSE,165,0.0,0.0,73,0.00,,,0.00,0,Wunderground v.1.15,2013-05-19 02:32:00,
2013-05-18 21:35:00,71.6,62.9,29.94,SSE,165,0.0,0.0,74,0.00,,,0.00,0,Wunderground v.1.15,2013-05-19 02:35:00,
2013-05-18 21:37:00,71.4,62.7,29.94,SSE,165,0.0,0.0,74,0.00,,,0.00,0,Wunderground v.1.15,2013-05-19 02:37:00,
2013-05-18 21:38:00,71.3,62.6,29.94,SSE,165,0.0,0.0,74,0.00,,,0.00,0,Wunderground v.1.15,2013-05-19 02:38:00,
2013-05-18 21:42:00,71.0,62.7,29.93,SSE,165,0.0,0.0,75,0.00,,,0.00,0,Wunderground v.1.15,2013-05-19 02:42:00,
2013-05-18 21:43:00,70.9,62.6,29.93,SSE,165,0.0,0.0,75,0.00,,,0.00,0,Wunderground v.1.15,2013-05-19 02:43:00,
2013-05-18 21:44:00,70.9,62.6,29.93,SSE,165,0.0,0.0,75,0.00,,,0.00,0,Wunderground v.1.15,2013-05-19 02:44:00,
2013-05-18 21:45:00,70.8,62.9,29.93,SSE,165,0.0,0.0,76,0.00,,,0.00,0,Wunderground v.1.15,2013-05-19 02:45:00,
2013-05-18 21:46:00,70.7,62.8,29.93,SSE,165,0.0,0.0,76,0.00,,,0.00,0,Wunderground v.1.15,2013-05-19 02:46:00,
2013-05-18 21:50:00,70.4,62.5,29.93,SSE,165,0.0,0.0,76,0.00,,,0.00,0,Wunderground v.1.15,2013-05-19 02:50:00,
2013-05-18 21:52:00,70.3,62.4,29.93,SSE,165,0.0,0.0,76,0.00,,,0.00,0,Wunderground v.1.15,2013-05-19 02:52:00,
2013-05-18 21:54:00,70.2,62.3,29.93,SSE,165,0.0,0.0,76,0.00,,,0.00,0,Wunderground v.1.15,2013-05-19 02:54:00,
2013-05-18 21:56:00,70.0,62.5,29.93,SSE,165,0.0,0.0,77,0.00,,,0.00,0,Wunderground v.1.15,2013-05-19 02:56:00,
2013-05-18 21:58:00,69.9,62.4,29.93,SSE,165,0.0,0.0,77,0.00,,,0.00,0,Wunderground v.1.15,2013-05-19 02:58:00,
2013-05-18 21:59:00,69.8,62.3,29.93,SSE,165,0.0,0.0,77,0.00,,,0.00,0,Wunderground v.1.15,2013-05-19 02:59:00,
2013-05-18 22:00:00,69.8,62.3,29.93,SSE,165,0.0,0.0,77,0.00,,,0.00,0,Wunderground v.1.15,2013-05-19 03:00:00,
2013-05-18 22:01:00,69.7,62.2,29.93,SSE,165,0.0,0.0,77,0.00,,,0.00,0,Wunderground v.1.15,2013-05-19 03:01:00,
2013-05-18 22:02:00,69.6,62.4,29.93,SSE,165,0.0,0.0,78,0.00,,,0.00,0,Wunderground v.1.15,2013-05-19 03:02:00,
2013-05-18 22:04:00,69.4,62.2,29.93,SSE,165,0.0,0.0,78,0.00,,,0.00,0,Wunderground v.1.15,2013-05-19 03:04:00,
2013-05-18 22:05:00,69.4,62.6,29.93,SSE,165,0.0,0.0,79,0.00,,,0.00,0,Wunderground v.1.15,2013-05-19 03:05:00,
2013-05-18 22:09:00,69.1,61.9,29.92,SSE,165,0.0,0.0,78,0.00,,,0.00,0,Wunderground v.1.15,2013-05-19 03:09:00,
2013-05-18 22:11:00,69.0,61.9,29.92,SSE,165,0.0,0.0,78,0.00,,,0.00,0,Wunderground v.1.15,2013-05-19 03:11:00,
2013-05-18 22:12:00,68.9,62.1,29.92,SSE,165,0.0,0.0,79,0.00,,,0.00,0,Wunderground v.1.15,2013-05-19 03:12:00,
2013-05-18 22:15:00,68.7,61.9,29.92,SSE,165,0.0,0.0,79,0.00,,,0.00,0,Wunderground v.1.15,2013-05-19 03:15:00,
2013-05-18 22:16:00,68.6,61.8,29.92,SSE,165,0.0,0.0,79,0.00,,,0.00,0,Wunderground v.1.15,2013-05-19 03:16:00,
2013-05-18 22:17:00,68.6,61.8,29.92,SSE,165,0.0,0.0,79,0.00,,,0.00,0,Wunderground v.1.15,2013-05-19 03:17:00,
2013-05-18 22:18:00,68.5,61.7,29.92,SSE,165,0.0,0.0,79,0.00,,,0.00,0,Wunderground v.1.15,2013-05-19 03:18:00,
2013-05-18 22:19:00,68.5,61.7,29.92,SSE,165,0.0,0.0,79,0.00,,,0.00,0,Wunderground v.1.15,2013-05-19 03:19:00,
2013-05-18 22:24:00,68.2,61.4,29.92,SSE,165,0.0,0.0,79,0.00,,,0.00,0,Wunderground v.1.15,2013-05-19 03:24:00,
2013-05-18 22:26:00,68.0,61.6,29.92,SSE,165,0.0,0.0,80,0.00,,,0.00,0,Wunderground v.1.15,2013-05-19 03:26:00,
2013-05-18 22:29:00,67.8,61.4,29.92,SSE,165,0.0,0.0,80,0.00,,,0.00,0,Wunderground v.1.15,2013-05-19 03:29:00,
2013-05-18 22:30:00,67.7,61.3,29.92,SSE,165,0.0,0.0,80,0.00,,,0.00,0,Wunderground v.1.15,2013-05-19 03:30:00,
2013-05-18 22:32:00,67.6,61.6,29.92,SSE,165,0.0,0.0,81,0.00,,,0.00,0,Wunderground v.1.15,2013-05-19 03:32:00,
2013-05-18 22:35:00,67.4,61.4,29.92,SSE,165,0.0,0.0,81,0.00,,,0.00,0,Wunderground v.1.15,2013-05-19 03:35:00,
2013-05-18 22:36:00,67.3,61.3,29.92,SSE,165,0.0,0.0,81,0.00,,,0.00,0,Wunderground v.1.15,2013-05-19 03:36:00,
2013-05-18 22:39:00,67.1,61.1,29.91,SSE,165,0.0,0.0,81,0.00,,,0.00,0,Wunderground v.1.15,2013-05-19 03:39:00,
2013-05-18 22:41:00,67.0,61.0,29.91,SSE,165,0.0,0.0,81,0.00,,,0.00,0,Wunderground v.1.15,2013-05-19 03:41:00,
2013-05-18 22:42:00,66.9,60.9,29.91,SSE,165,0.0,0.0,81,0.00,,,0.00,0,Wunderground v.1.15,2013-05-19 03:42:00,
2013-05-18 22:44:00,66.9,61.2,29.91,SSE,165,0.0,0.0,82,0.00,,,0.00,0,Wunderground v.1.15,2013-05-19 03:44:00,
2013-05-18 22:47:00,66.7,61.0,29.91,SSE,165,0.0,0.0,82,0.00,,,0.00,0,Wunderground v.1.15,2013-05-19 03:47:00,
2013-05-18 22:51:00,66.5,60.8,29.91,SSE,165,0.0,0.0,82,0.00,,,0.00,0,Wunderground v.1.15,2013-05-19 03:51:00,
2013-05-18 22:52:00,66.4,60.7,29.91,SSE,165,0.0,0.0,82,0.00,,,0.00,0,Wunderground v.1.15,2013-05-19 03:52:00,
2013-05-18 22:54:00,66.3,60.6,29.91,SSE,165,0.0,0.0,82,0.00,,,0.00,0,Wunderground v.1.15,2013-05-19 03:54:00,
2013-05-18 22:56:00,66.1,60.4,29.91,SSE,165,0.0,0.0,82,0.00,,,0.00,0,Wunderground v.1.15,2013-05-19 03:56:00,
2013-05-18 22:57:00,66.1,60.4,29.91,SSE,165,0.0,0.0,82,0.00,,,0.00,0,Wunderground v.1.15,2013-05-19 03:57:00,
2013-05-18 22:58:00,66.0,60.7,29.91,SSE,165,0.0,0.0,83,0.00,,,0.00,0,Wunderground v.1.15,2013-05-19 03:58:00,
2013-05-18 23:00:00,65.9,60.6,29.91,SSE,165,0.0,0.0,83,0.00,,,0.00,0,Wunderground v.1.15,2013-05-19 04:00:00,
2013-05-18 23:01:00,65.9,60.6,29.91,SSE,165,0.0,0.0,83,0.00,,,0.00,0,Wunderground v.1.15,2013-05-19 04:01:00,
2013-05-18 23:03:00,65.8,60.5,29.91,SSE,165,0.0,1.0,83,0.00,,,0.00,0,Wunderground v.1.15,2013-05-19 04:03:00,
2013-05-18 23:04:00,65.7,60.4,29.91,SSE,165,0.0,1.0,83,0.00,,,0.00,0,Wunderground v.1.15,2013-05-19 04:04:00,
2013-05-18 23:05:00,65.6,60.6,29.91,SSE,165,0.0,1.0,84,0.00,,,0.00,0,Wunderground v.1.15,2013-05-19 04:05:00,
2013-05-18 23:07:00,65.5,60.5,29.91,SSE,165,0.0,1.0,84,0.00,,,0.00,0,Wunderground v.1.15,2013-05-19 04:07:00,
2013-05-18 23:08:00,65.4,60.4,29.91,SSE,165,0.0,1.0,84,0.00,,,0.00,0,Wunderground v.1.15,2013-05-19 04:08:00,
2013-05-18 23:09:00,65.4,60.4,29.91,SSE,165,0.0,1.0,84,0.00,,,0.00,0,Wunderground v.1.15,2013-05-19 04:09:00,
2013-05-18 23:12:00,65.1,60.1,29.91,SSE,165,0.0,0.0,84,0.00,,,0.00,0,Wunderground v.1.15,2013-05-19 04:12:00,
2013-05-18 23:13:00,65.1,60.1,29.91,SSE,165,0.0,0.0,84,0.00,,,0.00,0,Wunderground v.1.15,2013-05-19 04:13:00,
2013-05-18 23:16:00,64.9,60.3,29.91,SSE,165,0.0,0.0,85,0.00,,,0.00,0,Wunderground v.1.15,2013-05-19 04:16:00,
2013-05-18 23:19:00,64.8,60.2,29.91,SSE,165,0.0,0.0,85,0.00,,,0.00,0,Wunderground v.1.15,2013-05-19 04:19:00,
2013-05-18 23:24:00,64.5,59.9,29.91,SSE,165,0.0,0.0,85,0.00,,,0.00,0,Wunderground v.1.15,2013-05-19 04:24:00,
2013-05-18 23:25:00,64.5,59.9,29.91,SSE,165,0.0,0.0,85,0.00,,,0.00,0,Wunderground v.1.15,2013-05-19 04:25:00,
2013-05-18 23:26:00,64.4,60.1,29.91,SSE,165,0.0,0.0,86,0.00,,,0.00,0,Wunderground v.1.15,2013-05-19 04:26:00,
2013-05-18 23:27:00,64.4,60.1,29.91,SSE,165,0.0,0.0,86,0.00,,,0.00,0,Wunderground v.1.15,2013-05-19 04:27:00,
2013-05-18 23:29:00,64.3,60.0,29.91,SSE,165,0.0,0.0,86,0.00,,,0.00,0,Wunderground v.1.15,2013-05-19 04:29:00,
2013-05-18 23:30:00,64.3,60.0,29.91,SSE,165,0.0,0.0,86,0.00,,,0.00,0,Wunderground v.1.15,2013-05-19 04:30:00,
2013-05-18 23:31:00,64.2,59.9,29.91,SSE,165,0.0,0.0,86,0.00,,,0.00,0,Wunderground v.1.15,2013-05-19 04:31:00,
2013-05-18 23:33:00,64.1,59.8,29.91,SSE,165,0.0,0.0,86,0.00,,,0.00,0,Wunderground v.1.15,2013-05-19 04:33:00,
2013-05-18 23:35:00,64.0,59.7,29.91,SSE,165,0.0,0.0,86,0.00,,,0.00,0,Wunderground v.1.15,2013-05-19 04:35:00,
2013-05-18 23:37:00,63.9,59.6,29.91,SSE,165,0.0,0.0,86,0.00,,,0.00,0,Wunderground v.1.15,2013-05-19 04:37:00,
2013-05-18 23:38:00,63.9,59.6,29.91,SSE,165,0.0,0.0,86,0.00,,,0.00,0,Wunderground v.1.15,2013-05-19 04:38:00,
2013-05-18 23:39:00,63.8,59.5,29.91,SSE,165,0.0,0.0,86,0.00,,,0.00,0,Wunderground v.1.15,2013-05-19 04:39:00,
2013-05-18 23:44:00,63.6,59.7,29.91,SSE,165,0.0,0.0,87,0.00,,,0.00,0,Wunderground v.1.15,2013-05-19 04:44:00,
2013-05-18 23:45:00,63.5,59.6,29.91,SSE,165,0.0,0.0,87,0.00,,,0.00,0,Wunderground v.1.15,2013-05-19 04:45:00,
2013-05-18 23:49:00,63.3,59.7,29.91,West,259,0.0,1.0,88,0.00,,,0.00,0,Wunderground v.1.15,2013-05-19 04:49:00,
2013-05-18 23:51:00,63.2,59.6,29.91,West,259,0.0,4.0,88,0.00,,,0.00,0,Wunderground v.1.15,2013-05-19 04:51:00,
2013-05-18 23:54:00,63.1,59.5,29.91,West,259,1.0,4.0,88,0.00,,,0.00,0,Wunderground v.1.15,2013-05-19 04:54:00,
2013-05-18 23:56:00,63.0,59.4,29.91,West,259,0.0,4.0,88,0.00,,,0.00,0,Wunderground v.1.15,2013-05-19 04:56:00,
2013-05-18 23:59:00,62.8,59.2,29.91,West,259,0.0,4.0,88,0.00,,,0.00,0,Wunderground v.1.15,2013-05-19 04:59:00,